     2.10           OBSERVATION DATA    G (GPS)             RINEX VERSION / TYPE
teqc 2002Mar14 Lou Estey 20020315 16:10:25UTC               PGM / RUN BY / DATE
Solaris 2.7|Ultra 2|cc SC5.0|=+-|*Sparc                     COMMENT
BIT 2 OF LLI FLAGS DATA COLLECTED UNDER A/S CONDITION       COMMENT
DE01                                                        MARKER NAME
___ -Unknown-                                               OBSERVER / AGENCY
187 ASHTECH Z-XII3 1E95                                     REC # / TYPE / VERS
SLV -Unknown-                                               ANT # / TYPE
 -1283319.1469 -4712962.7723  4090271.9469                  APPROX POSITION XYZ
        0.0000        0.0000        0.0000                  ANTENNA: DELTA H/E/N
     1     1                                                WAVELENGTH FACT L1/2
     5    L1    L2    C1    P2    P1                        # / TYPES OF OBSERV
SNR is mapped to RINEX snr flag value [1-9]                 COMMENT
L1: 1 -> 1; 90 -> 5; 210 -> 9                               COMMENT
L2: 1 -> 1; 150 -> 5; 250 -> 9                              COMMENT
  1997     8    18     0     0   30.0000000     GPS         TIME OF FIRST OBS
                                                            END OF HEADER
 97  8 18  0  0 30.0000000  0  9G 1G14G25G29G 5G23G21G30G15
 -19699753.41849   2868972.27447  21151992.0334   21151998.7814   21151991.1814
  -4288087.03249  -2916094.55645  24698776.8884   24698784.4174   24698776.3544
 -21537174.88249  -5391849.60747  21359528.6384   21359534.8864   21359528.1174
 -14995913.44949  -4577725.73946  22197933.4554   22197940.1224   22197932.9914
  -3681962.15549     -3015.78145  24951038.0494   24951046.4224   24951037.0964
   5981884.41449   7389935.50345  25247055.7944   25247064.4824   25247055.1174
 -14807002.70049   4708615.60446  21908674.9614   21908682.0944   21908674.0714
  -8870639.25849  -4194420.25145  24100665.2764   24100672.7274   24100664.9074
 -17062989.38249  -3682545.65247  21588510.5734   21588517.3254   21588509.5064
 97  8 18  0  0 59.9990000  0  9G 1G14G25G29G 5G23G21G30G15
 -19649768.86449   2907921.27547  20861711.3574   20861718.1064   20861710.4784
  -4374579.03949  -2983490.88145  24382525.5714   24382533.0774   24382525.1194
 -21585226.39949  -5429292.32947  21050592.2384   21050598.4884   21050591.7294
 -15042985.41349  -4614405.18346  21889183.4814   21889190.0994   21889183.0444
  -3656500.79649     16824.23745  24656090.7604   24656098.9804   24656089.8744
   6083633.51049   7469220.47845  24966625.5434   24966634.3544   24966624.8554
 -14728835.64449   4769524.97746  21623757.1874   21623764.3644   21623756.3354
  -8906533.45849  -4222389.71145  23794042.1764   23794049.7544   23794041.8184
 -17080274.69249  -3696014.71947  21285428.8574   21285435.5814   21285427.7854
 97  8 18  0  1 29.9990000  0  9G 1G14G25G29G 5G23G21G30G15
 -19599492.13249   2947097.94747  20871278.7094   20871285.4604   20871277.8554
  -4461046.07749  -3050867.73445  24366071.4344   24366079.0974   24366070.8704
 -21632790.76149  -5466355.45347  21041541.0484   21041547.2784   21041540.5354
 -15089835.25849  -4650911.54146  21880268.2384   21880274.8554   21880267.7964
  -3630505.95949     37079.93345  24661037.5814   24661045.7004   24661036.5594
   6185542.10049   7548629.70545  24986018.1984   24986026.9034   24986017.4704
 -14650288.92649   4830730.20446  21638704.1774   21638711.3334   21638703.3084
  -8941978.52349  -4250009.18745  23787297.0674   23787304.7374   23787296.7284
 -17096907.54749  -3708975.38947  21282263.7044   21282270.4284   21282262.6364
 97  8 18  0  1 59.9990000  0  9G 1G14G25G29G 5G23G21G30G15
 -19548980.69049   2986457.50747  20880890.6894   20880897.4384   20880889.8214
  -4547522.89249  -3118252.20845  24349615.4564   24349623.3044   24349614.8324
 -21679942.15849  -5503096.78447  21032568.4084   21032574.6334   21032567.9064
 -15136517.73949  -4687287.48646  21871384.8924   21871391.5204   21871384.4464
  -3604027.90249     57712.16745  24666076.2434   24666084.3144   24666075.1514
   6287576.65049   7628137.12245  25005434.8494   25005443.2174   25005434.0384
 -14571403.71249   4892199.17746  21653715.5444   21653722.7224   21653714.6654
  -8977003.85249  -4277301.61145  23780631.8644   23780639.5644   23780631.5924
 -17112928.48949  -3721459.24347  21279215.0154   21279221.7284   21279213.9474
 97  8 18  0  2 29.9990000  0  9G 1G14G25G29G 5G23G21G30G15
 -19498223.86549   3026008.28047  20890549.4394   20890556.1444   20890548.5644
  -4633976.96149  -3185618.96345  24333163.8624   24333171.4854   24333163.1624
 -21726671.31849  -5539509.09747  21023676.1714   21023682.3724   21023675.6424
 -15182996.33549  -4723504.55646  21862540.2954   21862546.9654   21862539.8594
  -3577032.04649     78747.88545  24671213.4554   24671221.3794   24671212.2254
   6389768.12149   7707766.81445  25024881.2504   25024889.5914   25024880.3364
 -14492145.97849   4953958.43346  21668797.8644   21668804.9994   21668796.9244
  -9011587.90849  -4304250.18845  23774050.6594   23774058.3214   23774050.4284
 -17128314.74849  -3733448.54147  21276287.1344   21276293.8934   21276286.0544
 97  8 18  0  2 59.9990000  0  9G 1G14G25G29G 5G23G21G30G15
 -19447237.20949   3065738.14147  20900251.8824   20900258.5734   20900250.9974
  -4720416.69449  -3252974.54845  24316714.9374   24316722.4974   24316714.1394
 -21772993.02349  -5575603.91547  21014861.4084   21014867.6324   21014860.8854
 -15229264.62249  -4759557.74747  21853735.7584   21853742.4324   21853735.3044
  -3549512.77649    100191.43945  24676450.1804   24676458.0544   24676448.9404
   6492109.97549   7787513.69445  25044356.2524   25044364.6184   25044355.2844
 -14412511.00649   5016011.63546  21683951.8954   21683959.0824   21683950.9534
  -9045738.51849  -4330861.02445  23767551.9774   23767559.6124   23767551.7864
 -17143068.72349  -3744945.14147  21273479.5094   21273486.2804   21273478.4574
 97  8 18  0  3 29.9990000  0  9G 1G14G25G29G 5G23G21G30G15
 -19396047.00349   3105626.61247  20909993.0154   20909999.7504   20909992.1344
  -4806855.67349  -3320329.54545  24300266.1154   24300273.7844   24300265.3174
 -21818931.84549  -5611400.38147  21006119.5724   21006125.8104   21006119.0364
 -15275339.12349  -4795459.94547  21844968.1044   21844974.7544   21844967.6144
  -3521480.70449    122034.59545  24681784.4494   24681792.4774   24681783.3174
   6594585.62549   7867364.83845  25063856.8004   25063865.3344   25063855.8644
 -14332515.26349   5078345.95746  21699174.5674   21699181.7804   21699173.6544
  -9079470.78149  -4357145.85345  23761132.9024   23761140.6364   23761132.6904
 -17157207.22249  -3755962.15647  21270789.1314   21270795.8064   21270788.0404
 97  8 18  0  3 59.9990000  0  9G 1G14G25G29G 5G23G21G30G15
 -19344667.28249   3145662.75047  20919770.2634   20919777.0114   20919769.3654
  -4893290.03049  -3387680.94145  24283818.1934   24283825.9274   24283817.4334
 -21864451.88649  -5646870.52047  20997457.3294   20997463.6244   20997456.8234
 -15321195.16149  -4831191.91047  21836241.9584   21836248.6044   21836241.4854
  -3492910.37349    144297.17145  24687221.3274   24687229.2764   24687220.1324
   6697203.62749   7947326.89945  25083384.4534   25083393.0674   25083383.3654
 -14252160.31149   5140960.17346  21714465.6374   21714472.8564   21714464.7594
  -9112757.59649  -4383083.61145  23754798.6524   23754806.3184   23754798.4154
 -17170719.04049  -3766490.84247  21268217.9344   21268224.6084   21268216.8304
 97  8 18  0  4 29.9990000  0  9G 1G14G25G29G 5G23G21G30G15
 -19293085.70049   3185856.18947  20929585.9054   20929592.6434   20929585.0104
  -4979712.17849  -3455022.83145  24267372.5794   24267380.2734   24267371.8284
 -21909514.50849  -5681984.23047  20988882.2184   20988888.5084   20988881.6904
 -15366805.69149  -4866732.55647  21827562.5674   21827569.2584   21827562.1134
  -3463790.69149    166987.80245  24692762.6794   24692770.5964   24692761.5074
   6799979.32449   8027411.83845  25102942.0114   25102950.7074   25102940.9054
 -14171431.02549   5203866.07446  21729827.8844   21729835.1664   21729827.0144
  -9145588.15349  -4408665.83545  23748551.2624   23748558.8564   23748550.9804
 -17183592.52949  -3776522.12747  21265768.1414   21265774.8834   21265767.0564
 97  8 18  0  4 59.9990000  0  9G 1G14G25G29G 5G23G21G30G15
 -19241294.30349   3226213.11647  20939441.4764   20939448.2434   20939440.5874
  -5066130.55049  -3522361.77545  24250927.6824   24250935.3824   24250926.8734
 -21954107.28249  -5716731.83047  20980396.4324   20980402.7764   20980395.9044
 -15412167.86949  -4902079.68547  21818930.3764   21818937.0854   21818929.9394
  -3434143.16449    190089.73645  24698404.3944   24698412.2834   24698403.3514
   6902913.25849   8107620.12844  25122529.7334   25122538.1024   25122528.5354
 -14090345.16749   5267049.82946  21745258.0714   21745265.3114   21745257.1624
  -9177956.05549  -4433887.55945  23742391.8204   23742399.3794   23742391.5544
 -17195825.94649  -3786054.66047  21263440.2204   21263446.9624   21263439.1274
 97  8 18  0  5 29.9990000  0  9G 1G14G25G29G 5G23G21G30G15
 -19189307.14949   3266722.57847  20949334.2934   20949341.0864   20949333.4184
  -5152578.03249  -3589723.42145  24234477.2514   24234484.8874   24234476.4314
 -21998240.11249  -5751121.02747  20971998.1904   20972004.5364   20971997.6684
 -15457323.98049  -4937266.23447  21810337.4444   21810344.1724   21810336.9884
  -3404011.54749    213568.86245  24704138.2424   24704146.2284   24704137.2014
   7005976.99249   8187929.52544  25142142.1664   25142150.7064   25142141.0194
 -14008953.87349   5330471.56746  21760746.3844   21760753.6104   21760745.4694
  -9209883.44049  -4458766.01745  23736316.2724   23736323.8114   23736315.9804
 -17207448.26649  -3795111.00247  21261228.5284   21261235.3134   21261227.4484
 97  8 18  0  5 59.9990000  0  9G 1G14G25G29G 5G23G21G30G15
 -19137069.85649   3307426.95547  20959274.6954   20959281.5184   20959273.8274
  -5239005.88649  -3657069.77045  24218030.4274   24218038.2784   24218029.6974
 -22041852.79049  -5785104.91747  20963698.9524   20963705.3284   20963698.4344
 -15502231.55249  -4972259.12547  21801791.8294   21801798.5084   21801791.3644
  -3373359.20749    237453.77145  24709971.0784   24709979.2654   24709970.1234
   7109220.87749   8268379.31244  25161788.8584   25161797.0484   25161787.8254
 -13927217.59549   5394162.13346  21776300.3434   21776307.4904   21776299.4224
  -9241338.53949  -4483276.45845  23730330.6554   23730338.1034   23730330.3144
 -17218410.47849  -3803652.98247  21259142.5114   21259149.2584   21259141.4034
 97  8 18  0  6 29.9990000  0  9G 1G14G25G29G 5G23G21G30G15
 -19084608.16649   3348306.18747  20969257.8084   20969264.6614   20969256.9654
  -5325447.86049  -3724427.12245  24201580.9654   24201588.8464   24201580.2754
 -22084996.49049  -5818723.36647  20955488.9664   20955495.3334   20955488.4574
 -15546937.27249  -5007094.72747  21793284.6314   21793291.2524   21793284.1634
  -3342234.25549    261706.93345  24715894.1024   24715902.1274   24715893.1634
   7212605.79649   8348939.02244  25181462.4324   25181470.9874   25181461.6374
 -13845162.93749   5458100.79646  21791914.8114   21791921.9504   21791913.9324
  -9272383.29749  -4507467.14745  23724422.9304   23724430.4734   23724422.6044
 -17228748.71549  -3811708.73947  21257175.2014   21257181.9704   21257174.1054
 97  8 18  0  6 59.9990000  0  9G 1G14G25G29G 5G23G21G30G15
 -19031913.26849   3389367.13947  20979285.3244   20979292.1624   20979284.4544
  -5411903.72949  -3791795.28945  24185128.7924   24185136.7804   24185128.1954
 -22127679.72649  -5851983.01047  20947366.6294   20947372.9454   20947366.0904
 -15591445.45249  -5041776.39847  21784814.9784   21784821.6204   21784814.5074
  -3310631.37749    286332.51745  24721907.9964   24721916.0634   24721907.0304
   7316132.80649   8429609.44944  25201162.8334   25201171.6114   25201162.0994
 -13762781.27449   5522294.25046  21807591.4784   21807598.6954   21807590.6294
  -9303017.14149  -4531337.64845  23718593.4894   23718600.9554   23718593.1204
 -17238458.33049  -3819274.66047  21255327.5404   21255334.3554   21255326.4444
 97  8 18  0  7 30.0000000  0  9G 1G14G25G29G 5G23G21G30G15
 -18978984.64649   3430610.22047  20989357.3194   20989364.1784   20989356.4414
  -5498346.20449  -3859153.01045  24168679.1554   24168687.3394   24168678.6424
 -22169899.57649  -5884881.57547  20939332.4344   20939338.7634   20939331.8924
 -15635755.88949  -5076303.98547  21776382.9284   21776389.5744   21776382.4744
  -3278530.53649    311346.11945  24728016.6064   24728024.7084   24728015.6514
   7419805.94049   8510393.68344  25220891.0774   25220899.5584   25220890.2514
 -13680038.21649   5586769.32446  21823336.9554   21823344.2074   21823336.1094
  -9333233.31749  -4554882.70245  23712843.4764   23712850.9934   23712843.1404
 -17247529.54049  -3826343.12547  21253601.3144   21253608.1124   21253600.1994
 97  8 18  0  8  0.0000000  0  9G 1G14G25G29G 5G23G21G30G15
 -18925857.76649   3472007.78047  20999467.0434   20999473.9304   20999466.1524
  -5584778.12449  -3926502.53345  24152231.6374   24152239.8634   24152231.1784
 -22211689.80849  -5917445.37747  20931380.0034   20931386.2934   20931379.4484
 -15679867.87049  -5110676.93747  21767988.6694   21767995.3394   21767988.2454
  -3245936.25449    336744.22445  24734219.0934   24734227.2014   24734218.1974
   7523587.61048   8591262.51444  25240640.2754   25240648.3424   25240639.3694
 -13596930.02249   5651528.89846  21839152.0394   21839159.1914   21839151.0904
  -9363040.49649  -4578109.05745  23707171.3394   23707178.8314   23707171.0074
 -17255973.81349  -3832923.07347  21251994.4224   21252001.2224   21251993.3114
 97  8 18  0  8 30.0000000  0  9G 1G14G25G29G 5G23G21G30G15
 -18872536.19649   3513557.04547  21009613.8054   21009620.6754   21009612.9384
  -5671200.73649  -3993844.79545  24135785.9654   24135794.0454   24135785.4534
 -22253057.85949  -5949680.20547  20923507.9014   20923514.2154   20923507.3574
 -15723780.67749  -5144894.69647  21759632.3764   21759639.0304   21759631.9304
  -3212840.13049    362533.38645  24740516.9714   24740525.2884   24740516.1074
   7627465.79258   8672206.49244  25260407.5644   25260416.2704   25260406.2574
 -13513444.58449   5716582.43846  21855038.8004   21855045.9184   21855037.8724
  -9392412.69349  -4600996.46545  23701582.0464   23701589.5054   23701581.6864
 -17263790.03349  -3839013.63347  21250507.0674   21250513.8444   21250505.9514
 97  8 18  0  9  0.0000000  0  9G 1G14G25G29G 5G23G21G30G15
 -18819007.38549   3555267.80747  21019799.9774   21019806.8714   21019799.1264
  -5757595.54649  -4061165.37845  24119345.5124   24119353.5714   24119345.0154
 -22293977.21649  -5981565.40047  20915721.1804   20915727.4664   20915720.6384
 -15767476.87249  -5178943.64947  21751317.2294   21751323.8834   21751316.7774
  -3179226.12249    388726.07045  24746913.6234   24746921.7844   24746912.6994
   7731449.22448   8753232.39844  25280194.4374   25280203.8784   25280193.7254
 -13429589.30749   5781924.17946  21870995.9674   21871003.0624   21870995.0354
  -9421308.05549  -4623512.30845  23696083.3764   23696090.9704   23696083.0134
 -17270965.02649  -3844604.53047  21249141.6904   21249148.5254   21249140.5664
 97  8 18  0  9 30.0000000  0  9G 1G14G25G29G 5G23G21G30G15
 -18765272.42149   3597139.20347  21030025.4134   21030032.2744   21030024.5774
  -5843954.15149  -4128457.77845  24102911.9044   24102919.8424   24102911.3424
 -22334431.07249  -6013087.86947  20908023.0334   20908029.3044   20908022.5074
 -15810963.32649  -5212829.17547  21743042.0104   21743048.7234   21743041.5464
  -3145092.00849    415324.05845  24753409.1044   24753417.3764   24753408.2724
   7835526.23648   8834331.28044  25299999.7724   25300008.7834   25299999.1844
 -13345377.72349   5847543.55646  21887020.9464   21887028.0634   21887020.0514
  -9449718.98349  -4645650.68045  23690676.9824   23690684.5084   23690676.6854
 -17277494.44249  -3849692.38447  21247899.1854   21247906.0874   21247898.0764
 97  8 18  0 10  0.0000000  0  9G 1G14G25G29G 5G23G21G30G15
 -18711342.36549   3639162.62347  21040288.0014   21040294.8254   21040287.1424
  -5930303.64449  -4195743.07245  24086480.2194   24086488.0144   24086479.6274
 -22374417.92849  -6044246.44447  20900413.7614   20900420.0024   20900413.2354
 -15854247.61449  -5246557.17347  21734805.2534   21734811.9764   21734804.7984
  -3110457.16249    442312.23245  24760000.0264   24760008.2084   24759999.1894
   7939693.33548   8915500.44544  25319822.4494   25319830.8874   25319821.3554
 -13260831.95749   5913423.32746  21903109.5434   21903116.6784   21903108.6234
  -9477647.99149  -4667413.54445  23685362.2744   23685369.5934   23685361.9554
 -17283387.44349  -3854284.33647  21246777.7924   21246784.6794   21246776.6734
 97  8 18  0 10 30.0000000  0  9G 1G14G25G29G 5G23G21G30G15
 -18657204.26449   3681348.15447  21050590.1154   21050596.9204   21050589.2704
  -6016632.42049  -4263012.22045  24070052.5784   24070060.0334   24070051.9104
 -22413905.15649  -6075015.69647  20892899.5764   20892905.7774   20892899.0674
 -15897326.01049  -5280124.73647  21726607.6934   21726614.4284   21726607.2334
  -3075316.20549    469694.77145  24766687.0644   24766695.4734   24766686.2604
   8043971.97549   8996756.49444  25339666.1104   25339674.7354   25339664.5344
 -13175957.79749   5979559.00546  21919260.6404   21919267.7984   21919259.7024
  -9505084.16949  -4688792.36645  23680141.3074   23680148.6084   23680141.0294
 -17288635.16749  -3858373.47147  21245779.1744   21245786.0554   21245778.0644
 97  8 18  0 11  0.0000000  0  9G 1G14G25G29G 5G23G21G30G15
 -18602892.40949   3723669.08347  21060925.3994   21060932.0974   21060924.5054
  -6102970.15649  -4330288.35445  24053623.2294   24053630.4594   24053622.4734
 -22452915.29749  -6105413.18947  20885476.2074   20885482.3444   20885475.6764
 -15940237.92249  -5313562.57047  21718441.8274   21718448.5234   21718441.3564
  -3039703.50449    497444.89345  24773464.0404   24773472.2434   24773463.1294
   8148339.28349   9078081.63545  25359526.5104   25359535.2704   25359525.2164
 -13090793.10449   6045921.07046  21935466.9564   21935474.1194   21935466.0234
  -9532073.63849  -4709823.09945  23675005.4134   23675012.6214   23675005.1354
 -17293270.36649  -3861985.31047  21244897.0914   21244903.9734   21244895.9754
 97  8 18  0 11 30.0000000  0  9G 1G14G25G29G 5G23G21G30G15
 -18548403.96049   3766127.61147  21071294.2284   21071300.8824   21071293.3374
  -6189299.69149  -4397558.11245  24037195.3724   24037202.4824   24037194.5974
 -22491436.52349  -6135429.71047  20878145.8264   20878151.9734   20878145.3214
 -15982965.60349  -5346856.85247  21710310.9734   21710317.6444   21710310.5154
  -3003605.79449    525572.96545  24780333.1314   24780341.4084   24780332.3334
   8252822.69149   9159497.25745  25379409.2454   25379417.7304   25379407.9414
 -13005310.49549   6112530.87746  21951733.8184   21951740.9274   21951732.9014
  -9558611.75849  -4730502.14745  23669955.4424   23669962.6174   23669955.1714
 -17297279.84249  -3865109.58147  21244134.0924   21244140.9494   21244132.9934
 97  8 18  0 12  0.0000000  0  9G 1G14G25G29G 5G23G21G30G15
 -18493712.88249   3808744.03447  21081701.5964   21081708.2414   21081700.7324
  -6275598.38449  -4464803.81945  24020773.3184   24020780.5354   24020772.5354
 -22529466.51349  -6165063.45347  20870908.9664   20870915.1034   20870908.4414
 -16025464.74849  -5379973.06347  21702223.6334   21702230.2584   21702223.1844
  -2966997.70649    554098.73045  24787299.5224   24787307.7524   24787298.5804
   8357463.04849   9241035.19745  25399321.7994   25399330.1844   25399320.5564
 -12919487.18849   6179406.17546  21968065.4704   21968072.5854   21968064.5554
  -9584676.98349  -4750812.71745  23664995.3764   23665002.5284   23664995.0854
 -17300644.35849  -3867731.28647  21243493.8964   21243500.6674   21243492.7864
 97  8 18  0 12 30.0000000  0  9G 1G14G25G29G 5G23G21G30G15
 -18438792.76749   3851538.92647  21092152.5334   21092159.1604   21092151.6574
  -6361845.23549  -4532009.11145  24004360.9964   24004368.4384   24004360.2884
 -22566999.99549  -6194310.30247  20863766.5264   20863772.7154   20863766.0254
 -16067724.70549  -5412902.87747  21694181.7814   21694188.4064   21694181.3314
  -2929854.03949    583041.81745  24794367.6954   24794375.9244   24794366.7484
   8462278.03549   9322709.20045  25419267.3734   25419275.8704   25419266.0984
 -12833311.23249   6246556.26946  21984464.2194   21984471.3794   21984463.3234
  -9610250.02149  -4770739.74045  23660128.9814   23660136.2134   23660128.7444
 -17303350.32749  -3869839.83247  21242978.9834   21242985.7924   21242977.8524
 97  8 18  0 13  0.0000000  0  9G 1G14G25G29G 5G23G21G30G15
 -18383663.73249   3894496.61847  21102643.2724   21102649.8934   21102642.3944
  -6448073.05049  -4599199.57545  23987952.3184   23987959.9834   23987951.5874
 -22604079.34149  -6223203.28447  20856710.5834   20856716.7104   20856710.0504
 -16109758.98549  -5445656.84947  21686182.8764   21686189.4494   21686182.4384
  -2892209.00949    612375.59745  24801531.1254   24801539.5984   24801530.3384
   8567236.15249   9404494.73545  25439240.2254   25439248.8484   25439239.1114
 -12746805.65349   6313963.19546  22000925.7164   22000932.9124   22000924.8074
  -9635357.37049  -4790303.89845  23655351.2374   23655358.4504   23655351.0024
 -17305426.96949  -3871457.99347  21242583.8134   21242590.6624   21242582.6864
 97  8 18  0 13 30.0000000  0  9G 1G14G25G29G 5G23G21G30G15
 -18328288.75049   3937645.95047  21113180.7864   21113187.3954   21113179.9104
  -6534258.32149  -4666356.89145  23971551.7554   23971559.4364   23971551.0704
 -22640686.73549  -6251728.51347  20849744.4454   20849750.5804   20849743.9134
 -16151528.91549  -5478204.83547  21678234.3284   21678240.8554   21678233.9114
  -2854030.69449    642124.90845  24808796.3304   24808804.8494   24808795.3584
   8672356.51049   9486406.69145  25459243.9724   25459252.6704   25459242.8434
 -12659943.57149   6381647.92046  22017455.0164   22017462.2274   22017454.1034
  -9659967.81649  -4809480.85045  23650668.0394   23650675.2794   23650667.7234
 -17306845.84849  -3872563.61847  21242313.8074   21242320.6994   21242312.6934
 97  8 18  0 14  0.0000000  0  9G 1G14G25G29G 5G23G21G30G15
 -18272709.02049   3980954.82847  21123757.2934   21123763.9024   21123756.4184
  -6620457.32649  -4733524.90145  23955148.6694   23955156.3174   23955147.8764
 -22676873.72749  -6279926.15047  20842858.2504   20842864.3864   20842857.7204
 -16193094.55649  -5510593.63247  21670324.6854   21670331.1434   21670324.2474
  -2815365.80049    672253.38445  24816154.0454   24816162.5214   24816152.9654
   8777568.20149   9568389.80645  25479265.0354   25479273.8774   25479264.0324
 -12572776.18949   6449570.53546  22034042.3764   22034049.6194   22034041.4604
  -9684118.88549  -4828299.86945  23646072.2654   23646079.4164   23646071.9954
 -17307650.04449  -3873190.26147  21242160.7424   21242167.6754   21242159.6394
 97  8 18  0 14 30.0000000  0  9G 1G14G25G29G 5G23G21G30G15
 -18216904.65349   4024438.74847  21134376.5104   21134383.0844   21134375.6164
  -6706624.39749  -4800668.02845  23938751.6124   23938759.2654   23938750.8274
 -22712583.79849  -6307752.16247  20836062.8884   20836069.0264   20836062.3644
 -16234449.71549  -5542818.41947  21662455.0724   21662461.5124   21662454.6354
  -2776182.31149    702785.95345  24823610.3504   24823618.8924   24823609.3444
   8882884.07549   9650454.09745  25499305.9304   25499314.8634   25499304.9484
 -12485263.41249   6517762.29146  22050695.5434   22050702.7664   22050694.5924
  -9707774.84949  -4846733.09045  23641570.6794   23641577.8664   23641570.3224
 -17307804.98649  -3873311.00047  21242131.2524   21242138.1864   21242130.1494
 97  8 18  0 15  0.0000000  0  9G 1G14G25G29G 5G23G21G30G15
 -18160882.58749   4068092.29747  21145037.1284   21145043.7334   21145036.2564
  -6792731.05249  -4867764.07145  23922365.9184   23922373.6094   23922365.2124
 -22747795.93049  -6335190.17147  20829362.2504   20829368.3694   20829361.7234
 -16275586.16849  -5574872.77847  21654627.0624   21654633.4824   21654626.6144
  -2736469.52449    733730.94445  24831167.5844   24831175.9844   24831166.3714
   8988311.58749   9732605.41345  25519368.1864   25519377.1504   25519367.3294
 -12397399.69049   6586227.50646  22067415.4684   22067422.7134   22067414.5364
  -9730928.61149  -4864774.97045  23637164.5534   23637171.7764   23637164.2224
 -17307294.79849  -3872913.44547  21242228.3584   21242235.2824   21242227.2424
 97  8 18  0 15 30.0000000  0  9G 1G14G25G29G 5G23G21G30G15
 -18104686.28149   4111881.62447  21155730.9444   21155737.5464   21155730.0434
  -6878798.29149  -4934829.42145  23905987.6464   23905995.4694   23905987.0304
 -22782543.99349  -6362266.56547  20822749.9294   20822756.0244   20822749.3814
 -16316555.36349  -5606796.80847  21646830.8744   21646837.2604   21646830.4314
  -2696258.97749    765063.83845  24838819.2954   24838827.5754   24838818.2344
   9093819.42749   9814819.25345  25539445.6754   25539454.6184   25539444.6224
 -12309213.83749   6654943.73646  22084196.6834   22084203.9614   22084195.8294
  -9753609.56149  -4882448.42045  23632848.5054   23632855.7164   23632848.1504
 -17306147.68949  -3872019.58947  21242446.6284   21242453.5174   21242445.5314
 97  8 18  0 16  0.0000000  0  9G 1G14G25G29G 5G23G21G30G15
 -18048317.31849   4155805.48747  21166457.6044   21166464.2284   21166456.7174
  -6964811.36449  -5001852.56545  23889619.8584   23889627.5604   23889619.2514
 -22816823.66949  -6388977.98547  20816226.6964   20816232.8294   20816226.1574
 -16357362.60049  -5638594.63647  21639065.5104   21639071.9254   21639065.0674
  -2655550.52849    796784.67945  24846565.8424   24846574.3144   24846564.7224
   9199423.01549   9897107.78145  25559541.3964   25559550.3504   25559540.1484
 -12220698.83749   6723916.44846  22101040.5954   22101047.8674   22101039.7194
  -9775808.38849  -4899746.19245  23628624.2664   23628631.3594   23628623.9044
 -17304359.18549  -3870625.94847  21242786.9434   21242793.8524   21242785.8364
 97  8 18  0 16 30.0000000  0  8G 1G14G25G29G 5G21G30G15
 -17991758.15449   4199877.56347  21177220.4694   21177227.1104   21177219.5664
  -7050748.10049  -5068816.22145  23873266.6804   23873274.2174   23873265.9424
 -22850620.07149  -6415312.82447  20809795.4214   20809801.5754   20809794.8894
 -16397982.77749  -5670246.70347  21631335.7384   21631342.1854   21631335.2884
  -2614334.75749    828900.82845  24854408.9014   24854417.3444   24854407.7824
 -12131835.42149   6793160.65346  22117950.7354   22117958.0304   22117949.8624
  -9797521.92849  -4916665.82945  23624492.3374   23624499.2824   23624491.9654
 -17301915.00649  -3868721.38947  21243252.0364   21243258.9504   21243250.9334
 97  8 18  0 17  0.0000000  0  8G 1G14G25G29G 5G21G30G15
 -17935007.48149   4244098.86247  21188019.7134   21188026.4174   21188018.8304
  -7136640.45649  -5135745.28445  23856921.8444   23856929.4234   23856921.1474
 -22883962.05949  -6441293.57947  20803450.6574   20803456.8004   20803450.1114
 -16438404.47449  -5701744.11547  21623643.7484   21623650.2224   21623643.2934
  -2572630.70549    861397.45345  24862344.8874   24862353.4804   24862343.6884
 -12042630.93449   6862670.62746  22134925.8684   22134933.0884   22134924.9704
  -9818751.73949  -4933208.53345  23620452.4074   23620459.3544   23620452.0614
 -17298820.45849  -3866310.05147  21243840.9184   21243847.8324   21243839.8164
 97  8 18  0 17 30.0000000  0  8G 1G14G25G29G 5G21G30G15
 -17878076.90149   4288460.34647  21198853.2374   21198859.9824   21198852.3504
  -7222532.14549  -5202673.82745  23840577.1364   23840584.7334   23840576.4034
 -22916869.14149  -6466935.44447  20797188.6034   20797194.7574   20797188.0664
 -16478640.46249  -5733096.81747  21615987.1094   21615993.5854   21615986.6544
  -2530460.00949    894257.70145  24870369.6694   24870378.3164   24870368.5924
 -11953107.99649   6932428.74046  22151961.5774   22151968.7674   22151960.6674
  -9839505.94249  -4949380.61945  23616502.9794   23616509.9544   23616502.6064
 -17295100.24849  -3863411.18847  21244548.8674   21244555.7364   21244547.7564
 97  8 18  0 18  0.0000000  0  8G 1G14G25G29G 5G21G30G15
 -17820908.68749   4333006.99447  21209731.9774   21209738.7364   21209731.1094
  -7308369.21149  -5269559.80845  23824242.7884   23824250.5884   23824242.0814
 -22949269.69249  -6492182.61547  20791022.9914   20791029.1324   20791022.4554
 -16518632.33049  -5764259.29447  21608376.9184   21608383.3874   21608376.4524
  -2487758.83449    927531.32345  24878495.2604   24878503.9834   24878494.3074
 -11863221.84849   7002469.87646  22169066.3774   22169073.5604   22169065.4454
  -9859722.92049  -4965134.10945  23612655.8154   23612662.8104   23612655.4694
 -17290700.34849  -3859982.69947  21245386.1624   21245393.0364   21245385.0664
 97  8 18  0 18 30.0000000  0  8G 1G14G25G29G 5G21G30G15
 -17763548.28249   4377703.40847  21220647.3004   21220654.0554   21220646.4224
  -7394196.87549  -5336438.47445  23807910.3174   23807918.1184   23807909.6074
 -22981190.69449  -6517056.10547  20784948.6484   20784954.7504   20784948.0804
 -16558411.07049  -5795255.69447  21600807.2534   21600813.7234   21600806.7834
  -2444567.13349    961187.16845  24886714.4594   24886723.2384   24886713.4274
 -11773019.84349   7072757.12846  22186231.2084   22186238.4214   22186230.2534
  -9879433.81349  -4980493.22745  23608904.9854   23608911.9574   23608904.5754
 -17285662.31349  -3856056.95947  21246344.8684   21246351.7894   21246343.7524
 97  8 18  0 19  0.0000000  0  8G 1G14G25G29G 5G21G30G15
 -17706027.07449   4422525.12047  21231593.2214   21231599.9724   21231592.3454
  -7480020.44649  -5403313.95145  23791578.5924   23791586.3184   23791577.8244
 -23012643.82849  -6541565.02947  20778963.2844   20778969.3714   20778962.7244
 -16597994.65149  -5826100.02947  21593274.7134   21593281.1794   21593274.2174
  -2400897.21949    995215.64845  24895024.6064   24895033.4184   24895023.5134
 -11682530.98349   7143267.91646  22203450.6694   22203457.8974   22203449.7414
  -9898648.74449  -4995465.88745  23605248.4954   23605255.4784   23605248.1374
 -17280006.73649  -3851650.01847  21247421.0714   21247428.0494   21247419.9474
 97  8 18  0 19 30.0000000  0  8G 1G14G25G29G 5G21G30G15
 -17648291.58649   4467513.79747  21242579.9124   21242586.6984   21242579.0384
  -7565764.34249  -5470127.33945  23775261.9934   23775269.7234   23775261.1894
 -23043567.28649  -6565661.22147  20773078.7364   20773084.8294   20773078.1874
 -16637336.09749  -5856755.69347  21585788.2954   21585794.7624   21585787.8104
  -2356689.63749   1029663.08745  24903436.7674   24903446.1244   24903435.9004
 -11591704.30749   7214041.94546  22220734.3884   22220741.5984   22220733.4864
  -9917316.91349  -5010012.50445  23601696.0324   23601703.0234   23601695.6464
 -17273680.64449  -3846720.60447  21248624.9094   21248631.8864   21248623.8044
 97  8 18  0 20  0.0000000  0  8G 1G14G25G29G 5G21G30G15
 -17590359.68949   4512655.52647  21253604.0024   21253610.8004   21253603.1274
  -7651427.26649  -5536877.65145  23758960.8664   23758968.5964   23758960.1154
 -23073982.92749  -6589361.70547  20767290.7804   20767296.8964   20767290.2444
 -16676446.30949  -5887231.17047  21578345.9014   21578352.3474   21578345.3724
  -2311971.75949   1064508.16145  24911946.4174   24911955.6914   24911945.4894
 -11500540.96749   7285078.30946  22238082.2104   22238089.4754   22238081.3064
  -9935471.85049  -5024159.18045  23598241.2194   23598248.4134   23598240.8284
 -17266701.13949  -3841282.03547  21249953.0704   21249960.0564   21249951.9744
 97  8 18  0 20 30.0000000  0  8G 1G14G25G29G 5G21G30G15
 -17532247.83449   4557937.48047  21264662.3404   21264669.1564   21264661.4514
  -7737032.11649  -5603582.69445  23742670.8334   23742678.5384   23742670.0024
 -23103924.13149  -6612692.49947  20761593.1434   20761599.2344   20761592.5894
 -16715334.89549  -5917533.94847  21570945.6424   21570952.1164   21570945.1454
  -2266770.57449   1099729.84345  24920548.1364   24920557.0784   24920547.2044
 -11409058.76749   7356363.13946  22255490.6884   22255497.9364   22255489.7754
  -9953142.32249  -5037928.37145  23594878.5634   23594885.8204   23594878.1864
 -17259088.68149  -3835350.25347  21251401.6864   21251408.6774   21251400.5824
 97  8 18  0 21  0.0000000  0  8G 1G14G25G29G 5G21G30G15
 -17473938.93249   4603372.97647  21275758.1784   21275765.0024   21275757.3104
  -7822565.16449  -5670231.79245  23726394.4264   23726402.0964   23726393.5904
 -23133384.34449  -6635648.50247  20755987.0194   20755993.1314   20755986.4704
 -16753984.47649  -5947650.49947  21563590.8304   21563597.3494   21563590.3274
  -2221077.05049   1135335.16745  24929243.2964   24929252.3484   24929242.2754
 -11317237.84749   7427911.88446  22272963.5954   22272970.8594   22272962.7194
  -9970318.56049  -5051312.43645  23591609.9954   23591617.3084   23591609.5694
 -17250823.86749  -3828910.14747  21252974.4284   21252981.3814   21252973.3234
 97  8 18  0 21 30.0000000  0  8G 1G14G25G29G 5G21G30G15
 -17415418.73849   4648973.12347  21286894.2364   21286901.0414   21286893.3404
  -7908043.56249  -5736838.32245  23710128.4464   23710136.0784   23710127.5804
 -23162368.16849  -6658233.28547  20750471.5574   20750477.6704   20750471.0184
 -16792394.71049  -5977580.54447  21556281.5814   21556288.1324   21556281.1074
  -2174893.26449   1171322.51145  24938031.7754   24938040.7374   24938030.8204
 -11225071.17349   7499730.06546  22290502.3564   22290509.7084   22290501.4874
  -9986998.67749  -5064309.92345  23588435.7414   23588443.1424   23588435.3664
 -17241908.97149  -3821963.47947  21254670.8804   21254677.8184   21254669.7684
 97  8 18  0 22  0.0000000  0  8G 1G14G25G29G 5G21G30G15
 -17356704.83249   4694724.21747  21298067.1204   21298073.9094   21298066.2364
  -7993492.06749  -5803421.53245  23693867.9724   23693875.6844   23693867.2174
 -23190878.83749  -6680449.37247  20745046.1674   20745052.2844   20745045.6344
 -16830573.93249  -6007330.57147  21549016.3374   21549022.8684   21549015.8874
  -2128229.90649   1207683.53945  24946911.5384   24946920.6604   24946910.5334
 -11132585.59449   7571796.74346  22308101.8504   22308109.1744   22308100.9644
 -10003200.26949  -5076934.51845  23585352.7104   23585360.1314   23585352.3204
 -17232357.25449  -3814520.58147  21256488.5184   21256495.4604   21256487.4204
 97  8 18  0 22 30.0000000  0  8G 1G14G25G29G 5G21G30G15
 -17297800.52049   4740623.66947  21309276.2334   21309282.9894   21309275.3264
  -8078918.98449  -5869987.94645  23677611.6474   23677619.3894   23677610.9804
 -23218906.58949  -6702289.17547  20739712.6434   20739718.7544   20739712.1064
 -16868532.84949  -6036908.94747  21541793.0194   21541799.5364   21541792.5474
  -2081078.16449   1244425.15145  24955884.2784   24955893.3804   24955883.2324
 -11039793.62249   7644102.14146  22325759.5824   22325766.9614   22325758.6794
 -10018907.79449  -5089174.14845  23582363.6634   23582370.9924   23582363.2304
 -17222163.92149  -3806577.73547  21258428.2674   21258435.1234   21258427.1374
 97  8 18  0 23  0.0000000  0  8G 1G14G25G29G 5G21G30G15
 -17238713.32049   4786665.63947  21320520.1104   21320526.8584   21320519.2414
  -8164313.81149  -5936529.34745  23661361.5874   23661369.1864   23661360.9114
 -23246444.11249  -6723746.97447  20734472.4104   20734478.5224   20734471.8944
 -16906279.76749  -6066322.11747  21534610.0144   21534616.5484   21534609.5504
  -2033443.62549   1281542.92845  24964948.8684   24964957.8204   24964947.6864
 -10946695.96949   7716645.76046  22343475.4714   22343482.8394   22343474.5844
 -10034108.49449  -5101018.82945  23579471.0724   23579478.5524   23579470.6524
 -17211328.02549  -3798134.18047  21260490.2814   21260497.1124   21260489.1504
 97  8 18  0 23 30.0000000  0  8G 1G14G25G29G 5G21G30G15
 -17179432.79549   4832858.25247  21331800.8404   21331807.5494   21331799.9524
  -8249661.35049  -6003033.90045  23645120.5674   23645128.0904   23645119.8444
 -23273474.91549  -6744809.92547  20729328.6374   20729334.7344   20729328.1254
 -16943823.34749  -6095576.84647  21527465.6684   21527472.2474   21527465.2064
  -1985316.95649   1319044.23745  24974106.9914   24974115.8154   24974106.0564
 -10853286.42749   7789432.39646  22361250.7644   22361258.0814   22361249.8494
 -10048794.26049  -5112462.27845  23576676.4484   23576683.8704   23576676.0574
 -17199843.74049  -3789185.38647  21262675.6774   21262682.5074   21262674.5474
 97  8 18  0 24  0.0000000  0  8G 1G14G25G29G 5G21G30G15
 -17119974.60849   4879189.30647  21343115.3474   21343122.0574   21343114.4494
  -8334948.00849  -6069491.00545  23628891.0754   23628898.5654   23628890.3794
 -23300002.36049  -6765480.64747  20724280.6474   20724286.7024   20724280.0904
 -16981184.57349  -6124689.47247  21520355.9994   21520362.6124   21520355.5484
  -1936709.74949   1356919.97845  24983356.4844   24983365.6814   24983355.5834
 -10759568.41149   7862459.39746  22379084.7094   22379092.0904   22379083.8234
 -10062957.03649  -5123498.17345  23573981.3404   23573988.8984   23573980.9424
 -17187709.30649  -3779729.97947  21264984.8224   21264991.6064   21264983.6884
 97  8 18  0 24 30.0000000  0  8G 1G14G25G29G 5G21G30G15
 -17060336.71549   4925660.39247  21354464.0604   21354470.7724   21354463.1534
  -8420159.88849  -6135889.84645  23612675.7924   23612683.3254   23612675.1354
 -23326041.81349  -6785771.12047  20719325.4494   20719331.5594   20719324.9304
 -17018373.95949  -6153668.21247  21513279.0964   21513285.6604   21513278.6174
  -1887623.22749   1395169.19145  24992697.4994   24992706.3554   24992696.5164
 -10665519.71349   7935744.07646  22396981.5514   22396988.9914   22396980.6734
 -10076584.11649  -5134116.67645  23571388.1924   23571395.6564   23571387.8384
 -17174926.89749  -3769769.66947  21267417.1874   21267423.9924   21267416.0644
 97  8 18  0 25  0.0000000  0  8G 1G14G25G29G 5G21G30G15
 -17000522.84549   4972268.59847  21365846.2484   21365852.9754   21365845.3634
  -8505294.46349  -6202228.44745  23596475.2904   23596482.7554   23596474.5714
 -23351603.12849  -6805689.01947  20714461.3154   20714467.3834   20714460.7874
 -17055395.07649  -6182515.82547  21506234.2054   21506240.7754   21506233.7344
  -1838060.41849   1433789.55845  25002129.2514   25002137.9094   25002128.1974
 -10571142.82349   8009284.48046  22414940.8664   22414948.3674   22414940.0104
 -10089683.26949  -5144323.78646  23568895.5794   23568903.1234   23568895.2334
 -17161501.53049  -3759308.34847  21269971.9514   21269978.7604   21269970.8464
 97  8 18  0 25 30.0000000  0  8G 1G14G25G29G 5G21G30G15
 -16940506.03349   5019034.94647  21377267.0714   21377273.8064   21377266.1864
  -8590336.83449  -6268495.18845  23580292.2564   23580299.7534   23580291.4944
 -23376656.92349  -6825211.44547  20709693.7314   20709699.7904   20709693.1884
 -17092221.58749  -6211211.79247  21499226.3634   21499232.9394   21499225.8764
  -1787983.56749   1472810.46745  25011658.4814   25011667.1344   25011657.5594
 -10476410.03749   8083102.21946  22432967.9444   22432975.4134   22432967.0704
 -10102236.56049  -5154105.55345  23566506.7334   23566514.1714   23566506.3084
 -17147408.68749  -3748326.91147  21272653.7394   21272660.5354   21272652.6194
 97  8 18  0 26  0.0000000  0  8G 1G14G25G29G 5G21G30G15
 -16880361.83949   5065900.55147  21388712.1434   21388718.8594   21388711.2434
  -8675362.06449  -6334748.58945  23564112.4384   23564119.9244   23564111.6854
 -23401289.02249  -6844405.27647  20705006.4174   20705012.4804   20705005.8734
 -17128912.74049  -6239802.29047  21492244.2244   21492250.7974   21492243.7494
  -1737457.75249   1512181.22145  25021273.4424   25021281.9074   25021272.3344
 -10381388.08249   8157145.27946  22451050.1004   22451057.5004   22451049.1824
 -10114314.83549  -5163517.17646  23564208.2974   23564215.8244   23564207.9194
 -17132721.66949  -3736882.48547  21275448.6124   21275455.3784   21275447.4744
 97  8 18  0 26 30.0000000  0  8G 1G14G25G29G 5G21G30G15
 -16820022.56949   5112918.16347  21400194.3204   21400201.0534   21400193.4244
  -8760299.73549  -6400933.76046  23547949.2774   23547956.8634   23547948.6244
 -23425428.92249  -6863215.58347  20700412.7454   20700418.8434   20700412.1934
 -17165364.02549  -6268205.88147  21485307.7974   21485314.3284   21485307.3314
  -1686404.02049   1551963.33245  25030988.7434   25030997.1504   25030987.4684
 -10286009.47849   8231466.24646  22469200.0834   22469207.3924   22469199.1174
 -10125858.14649  -5172511.97745  23562011.6244   23562019.0834   23562011.2794
 -17117369.23449  -3724919.55547  21278370.0934   21278376.8664   21278369.0024
 97  8 18  0 27  0.0000000  0  8G 1G14G25G29G 5G21G30G15
 -16759483.57849   5160091.39947  21411714.5194   21411721.2494   21411713.6494
  -8845151.13949  -6467051.69045  23531802.6024   23531810.1584   23531801.9334
 -23449051.88349  -6881623.07247  20695917.4484   20695923.5514   20695916.9154
 -17201557.64349  -6296408.68547  21478420.3854   21478426.8694   21478419.8694
  -1634830.24549   1592150.68645  25040802.7704   25040811.3294   25040801.6434
 -10190287.79749   8306054.56546  22487415.3894   22487422.6794   22487414.4174
 -10136867.46449  -5181090.62846  23559916.5674   23559924.1844   23559916.2794
 -17101346.89549  -3712434.61847  21281419.0894   21281425.8324   21281417.9614
 97  8 18  0 27 30.0000000  0  8G 1G14G25G29G 5G21G30G15
 -16698774.52749   5207397.15047  21423267.1074   21423273.8234   21423266.2214
  -8929950.23649  -6533128.88246  23515665.8334   23515673.4744   23515665.1544
 -23472197.97049  -6899658.98047  20691512.8994   20691519.0024   20691512.3644
 -17237520.31149  -6324431.53247  21471576.9214   21471583.3874   21471576.4174
  -1582785.47049   1632705.05645  25050706.5194   25050715.2914   25050705.6574
 -10094257.87449   8380883.05046  22505689.3064   22505696.5934   22505688.3664
 -10147369.90849  -5189274.35246  23557918.0224   23557925.5014   23557917.7234
 -17084693.98349  -3699458.33147  21284588.0484   21284594.7444   21284586.9474
 97  8 18  0 28  0.0000000  0  8G 1G14G25G29G 5G21G30G15
 -16637888.59749   5254840.72247  21434853.3144   21434859.9854   21434852.4304
  -9014675.61449  -6599148.61246  23499543.0714   23499550.7494   23499542.4154
 -23494866.71949  -6917322.93547  20687199.1834   20687205.2984   20687198.6404
 -17273239.63349  -6352264.75947  21464779.7714   21464786.2134   21464779.2734
  -1530272.80949   1673624.02145  25060699.3554   25060708.3204   25060698.3204
  -9997923.21949   8455948.99546  22524021.2224   22524028.4314   22524020.2754
 -10157345.45149  -5197047.47946  23556019.6774   23556027.3344   23556019.4274
 -17067403.99249  -3685985.61547  21287878.2014   21287884.8854   21287877.0794
 97  8 18  0 28 30.0000000  0  8G 1G14G25G29G 5G21G30G15
 -16576832.70149   5302416.74147  21446471.8564   21446478.5224   21446470.9674
  -9099329.92149  -6665112.98346  23483433.8244   23483441.5454   23483433.1784
 -23517041.79549  -6934602.20147  20682979.3614   20682985.5024   20682978.8024
 -17308721.20149  -6379912.71647  21458027.8264   21458034.2764   21458027.3274
  -1477301.70949   1714900.20145  25070779.4644   25070788.2454   25070778.4114
  -9901313.27049   8531229.45646  22542405.5194   22542412.7484   22542404.5184
 -10166796.22349  -5204411.70946  23554221.1914   23554228.8244   23554220.9124
 -17049482.12449  -3672020.52647  21291288.6044   21291295.2864   21291287.4984
 97  8 18  0 29  0.0000000  0  8G 1G14G25G29G 5G21G30G15
 -16515568.03449   5350155.43347  21458130.0984   21458136.8054   21458129.2264
  -9183885.25949  -6731000.23046  23467343.4664   23467351.1694   23467342.8074
 -23538680.47049  -6951463.50147  20678861.6434   20678867.8334   20678861.0924
 -17343961.76149  -6407372.88147  21451321.7564   21451328.2134   21451321.2694
  -1423844.63949   1756555.06245  25080951.8614   25080960.4744   25080950.7894
  -9804398.96949   8606747.07446  22560847.6984   22560854.9254   22560846.7604
 -10175682.17749  -5211335.81146  23552530.4154   23552537.9214   23552530.0134
 -17030900.34749  -3657541.22747  21294824.6034   21294831.2854   21294823.5004
 97  8 18  0 29 30.0000000  0  8G 1G14G25G29G 5G21G30G15
 -16454100.46149   5398052.23147  21469826.9854   21469833.7234   21469826.1094
  -9268330.08449  -6796801.38046  23451274.1284   23451281.8004   23451273.4914
 -23559799.88849  -6967920.18547  20674842.7464   20674848.9644   20674842.1954
 -17378979.78049  -6434659.63647  21444658.0484   21444664.4814   21444657.5334
  -1369891.95249   1798596.12145  25091218.8354   25091227.0524   25091217.7914
  -9707177.98349   8682503.67646  22579348.2224   22579355.4084   22579347.2934
 -10183995.42649  -5217813.67646  23550948.4464   23550955.9474   23550948.1384
 -17011655.82549  -3642545.50847  21298486.7474   21298493.4194   21298485.6054
 97  8 18  0 30  0.0000000  0  8G 1G14G25G29G 5G21G30G15
 -16392479.82149   5446068.30747  21481552.9864   21481559.7564   21481552.1214
  -9352698.17649  -6862542.71746  23435219.4644   23435227.0894   23435218.7664
 -23580424.69849  -6983991.45147  20670917.9854   20670924.1624   20670917.4124
 -17413820.10849  -6461807.93347  21438028.1304   21438034.5474   21438027.6224
  -1315477.62649   1840996.89445  25101573.6544   25101581.7354   25101572.6224
  -9609692.39749   8758466.43646  22597899.0554   22597906.3334   22597898.1514
 -10191781.25149  -5223880.51946  23549466.8764   23549474.4334   23549466.5534
 -16991785.44449  -3627062.09647  21302267.9014   21302274.5804   21302266.7784
 97  8 18  0 30 30.0000000  0  8G 1G14G25G29G 5G21G30G15
 -16330684.66949   5494220.35747  21493312.2584   21493319.0164   21493311.3804
  -9436965.47849  -6928205.52946  23419183.9724   23419191.5174   23419183.1974
 -23600527.60749  -6999656.05547  20667092.5274   20667098.6694   20667091.9504
 -17448469.22849  -6488807.24847  21431434.6094   21431440.9714   21431434.1174
  -1260591.18049   1883765.55345  25112018.2194   25112026.2844   25112017.1524
  -9511903.56849   8834665.48346  22616507.6714   22616514.9084   22616506.7684
 -10199023.94849  -5229524.17446  23548088.7474   23548096.1124   23548088.3184
 -16971268.42849  -3611074.82647  21306172.1614   21306178.9174   21306171.0544
 97  8 18  0 31  0.0000000  0  8G 1G14G25G29G 5G21G30G15
 -16268713.20349   5542509.80047  21505105.0414   21505111.7994   21505104.1764
  -9521129.09249  -6993787.55646  23403168.2154   23403175.7434   23403167.4344
 -23620127.71949  -7014928.85447  20663362.7624   20663368.9084   20663362.2024
 -17482937.35449  -6515665.51047  21424875.5494   21424881.8894   21424875.0484
  -1205245.91249   1926891.73245  25122550.2614   25122558.3454   25122549.1114
  -9413791.43449   8911116.49846  22635177.8434   22635185.0254   22635176.9034
 -10205723.22249  -5234744.37246  23546813.7974   23546821.2484   23546813.5404
 -16950108.81249  -3594586.81247  21310198.7124   21310205.4324   21310197.5674
 97  8 18  0 31 30.0000000  0  8G 1G14G25G29G 5G21G30G15
 -16206549.64649   5590948.92647  21516934.4324   21516941.1464   21516933.5174
  -9605159.15549  -7059265.50146  23387177.7114   23387185.3254   23387176.9944
 -23639216.70149  -7029803.38347  20659730.2694   20659736.3974   20659729.6974
 -17517192.79949  -6542358.06147  21418356.9384   21418363.2344   21418356.4204
  -1149419.33449   1970392.96645  25133173.7424   25133181.5704   25133172.6274
  -9315336.62449   8987834.51446  22653913.1434   22653920.3634   22653912.2234
 -10211858.04749  -5239524.75146  23545646.4054   23545653.8064   23545646.0484
 -16928285.89549  -3577581.95047  21314351.4584   21314358.2294   21314350.3224
 97  8 18  0 32  0.0000000  0  8G 1G14G25G29G 5G21G30G15
 -16144213.99749   5639522.15047  21528796.4654   21528803.2524   21528795.5954
  -9689082.12749  -7124660.00146  23371207.6154   23371215.2034   23371206.9204
 -23657809.01249  -7044290.88847  20656192.2714   20656198.4124   20656191.7064
 -17551249.32849  -6568895.60447  21411876.1614   21411882.4994   21411875.6674
  -1093128.34649   2014256.06545  25143885.3724   25143893.2544   25143884.2724
  -9216559.91749   9064803.37146  22672709.8204   22672716.9694   22672708.8804
 -10217455.29749  -5243886.23546  23544581.3954   23544588.6234   23544581.0264
 -16905826.15949  -3560080.86547  21318625.4134   21318632.2124   21318624.2844
 97  8 18  0 32 30.0000000  0  8G 1G14G25G29G 5G21G30G15
 -16081718.88949   5688219.62047  21540688.9114   21540695.7004   21540688.0024
  -9772920.68849  -7189988.71846  23355253.6294   23355261.1644   23355252.9654
 -23675933.15549  -7058413.59347  20652743.3324   20652749.4604   20652742.7644
 -17585126.82249  -6595293.64647  21405429.5324   21405435.8314   21405429.0204
  -1036383.08649   2058473.19245  25154683.4604   25154691.4874   25154682.4754
  -9117476.04249   9142011.56946  22691564.9204   22691572.0944   22691563.9874
 -10222530.72749  -5247841.10946  23543615.4914   23543622.8124   23543615.1744
 -16882744.84849  -3542095.43547  21323017.6644   21323024.4414   21323016.5334
 97  8 18  0 33  0.0000000  0  8G 1G14G25G29G 5G21G30G15
 -16019053.43149   5737049.84447  21552613.7384   21552620.5824   21552612.8574
  -9856669.26149  -7255247.32446  23339316.8144   23339324.1664   23339316.0684
 -23693582.72649  -7072166.49647  20649384.7514   20649390.8484   20649384.1894
 -17618789.44749  -6621524.25147  21399023.7474   21399030.0604   21399023.2454
   -979157.87449   2103064.26045  25165573.2444   25165581.3044   25165572.3564
  -9018089.97049   9219455.22746  22710477.3464   22710484.6724   22710476.5244
 -10227065.08449  -5251374.35546  23542752.6314   23542759.9284   23542752.2024
 -16859024.88849  -3523612.35247  21327531.4514   21327538.2494   21327530.3084
 97  8 18  0 33 30.0000000  0  8G 1G14G25G29G 5G21G30G15
 -15956200.62349   5786026.04647  21564574.2354   21564581.1104   21564573.3274
  -9940310.03349  -7320421.93345  23323400.4984   23323407.8124   23323399.7274
 -23710727.11149  -7085525.75247  20646122.2594   20646128.3804   20646121.7174
 -17652210.63249  -6647566.72447  21392663.8954   21392670.2294   21392663.4274
   -921425.19249   2148050.74045  25176559.6674   25176567.4084   25176558.5714
  -8918380.29049   9297151.05046  22729451.5204   22729458.8354   22729450.6894
 -10231036.61249  -5254469.06246  23541996.8534   23542004.0884   23541996.4554
 -16834643.95949  -3504614.22747  21332171.0004   21332177.7834   21332169.8664
 97  8 18  0 34  0.0000000  0  8G 1G14G25G29G 5G21G30G15
 -15893192.79249   5835123.05147  21576564.2154   21576571.1354   21576563.3464
 -10023881.53949  -7385542.55346  23307497.3554   23307504.6674   23307496.6164
 -23727395.50949  -7098514.11047  20642950.3714   20642956.4734   20642949.8334
 -17685420.26249  -6673444.34947  21386344.3224   21386350.6744   21386343.8424
   -863228.17449   2193399.06145  25187634.0364   25187642.0714   25187633.0754
  -8818379.66749   9375073.56846  22748481.0784   22748488.3764   22748480.1354
 -10234476.34149  -5257149.37246  23541342.1984   23541349.4474   23541341.8584
 -16809635.44449  -3485127.07947  21336929.9614   21336936.7984   21336928.8324
 97  8 18  0 34 30.0000000  0  8G 1G14G25G29G 5G21G30G15
 -15830016.04249   5884351.67947  21588586.3614   21588593.3234   21588585.4934
 -10107373.93649  -7450601.53646  23291609.1584   23291616.5684   23291608.4554
 -23743575.64849  -7111122.00047  20639871.3734   20639877.4694   20639870.8454
 -17718392.59249  -6699137.06347  21380069.8774   21380076.1924   21380069.4164
   -804559.48249   2239114.91845  25198798.2614   25198806.5614   25198797.3254
  -8718078.87249   9453230.01046  22767567.6434   22767575.0284   22767566.7424
 -10237358.41449  -5259395.13746  23540793.7544   23540801.0844   23540793.4074
 -16783982.31649  -3465137.63847  21341811.5714   21341818.4404   21341810.4524
 97  8 18  0 35  0.0000000  0  8G 1G14G25G29G 5G21G30G15
 -15766687.00949   5933698.97047  21600637.4794   21600644.4234   21600636.6004
 -10190807.95349  -7515615.03346  23275732.2274   23275739.5694   23275731.4664
 -23759272.67149  -7123353.43947  20636884.3084   20636890.3894   20636883.7734
 -17751141.21249  -6724655.45347  21373838.0304   21373844.3494   21373837.5604
   -745439.98249   2285182.06745  25210048.2844   25210056.6894   25210047.3984
  -8617495.63849   9531606.53946  22786708.0204   22786715.4244   22786707.1314
 -10239701.14749  -5261220.65646  23540347.9824   23540355.3124   23540347.6364
 -16757704.31449  -3444661.27147  21346812.0954   21346818.9854   21346810.9804
 97  8 18  0 35 30.0000000  0  9G 1G14G22G25G29G 5G21G30G15
 -15703180.00749   5983184.93547  21612722.4344   21612729.3874   21612721.5744
 -10274145.24949  -7580553.16246  23259873.6024   23259880.9484   23259872.9254
    -83150.48549    -48212.03143
 -23774449.01949  -7135179.16247  20633996.3174   20634002.3944   20633995.7924
 -17783666.29249  -6749999.66247  21367648.6714   21367655.0004   21367648.2154
   -685846.11549   2331618.82545  25221388.8014   25221397.0754   25221387.6564
  -8516605.07049   9610222.51846  22805906.8254   22805914.3444   22805905.9604
 -10241486.75749  -5262612.03646  23540008.1274   23540015.5544   23540007.8414
 -16730781.63849  -3423682.57447  21351935.3224   21351942.2204   21351934.2334
 97  8 18  0 36  0.0000000  0  9G 1G14G22G25G29G 5G21G30G15
 -15639493.43449   6032810.82847  21624841.5854   21624848.5424   21624840.7444
 -10357391.08349  -7645420.02446  23244032.4004   23244039.8114   23244031.7624
   -174908.80849   -119712.57543
 -23789106.45749  -7146600.53847  20631207.1144   20631213.1984   20631206.5634
 -17815964.70249  -6775167.24047  21361502.5204   21361508.8144   21361502.0404
   -625781.28549   2378422.59145  25232819.0404   25232826.9084   25232817.7734
  -8415434.36949   9689056.82646  22825159.0384   22825166.4714   22825158.1524
 -10242723.59149  -5263575.79546  23539772.8184   23539780.2524   23539772.5344
 -16703219.01849  -3402205.21647  21357180.3094   21357187.2084   21357179.1934
 97  8 18  0 36 30.0000000  0  9G 1G14G22G25G29G 5G21G30G15
 -15575658.68749   6082552.18247  21636988.9604   21636995.8784   21636988.1054
 -10440580.26149  -7710242.72546  23228202.0084   23228209.3964   23228201.3614
   -266876.20249   -191375.80343
 -23803266.51249  -7157634.33947  20628512.5144   20628518.5784   20628511.9684
 -17848061.12249  -6800177.42847  21355394.7564   21355401.0614   21355394.2984
   -565277.89849   2425568.08345  25244332.3934   25244340.4874   25244331.2134
  -8314016.24449   9768083.92046  22844458.2264   22844465.7844   22844457.3814
 -10243448.94949  -5264141.02346  23539634.8444   23539642.2554   23539634.5604
 -16675046.48849  -3380252.60247  21362541.3474   21362548.3034   21362540.2514
 97  8 18  0 37  0.0000000  0  9G 1G14G22G25G29G 5G21G30G15
 -15511629.14949   6132445.31447  21649173.3744   21649180.3004   21649172.5304
 -10523654.31149  -7774975.71446  23212393.5304   23212400.9544   23212392.8854
   -358989.22049    -42510.54643
 -23816876.19449  -7168239.28347  20625922.6824   20625928.7404   20625922.1514
 -17879917.60749  -6825000.65947  21349332.6594   21349338.9434   21349332.1954
   -504295.67349   2473086.66945  25255936.9334   25255945.1064   25255935.7404
  -8212303.57149   9847340.51346  22863813.5514   22863821.1454   22863812.6724
 -10243623.03049  -5264276.66846  23539601.7024   23539609.1364   23539601.4334
 -16646221.01849  -3357791.21247  21368026.6314   21368033.5894   21368025.5344
 97  8 18  0 37 30.0000000  0  9G 1G14G22G25G29G 5G21G30G15
 -15447412.81349   6182484.00547  21661393.3394   21661400.2824   21661392.5204
 -10606600.01449  -7839608.71946  23196609.4384   23196616.8474   23196608.8024
   -451261.63749   -114410.60643
 -23829954.99049  -7178430.54547  20623433.8684   20623439.9114   20623433.3244
 -17911546.29849  -6849646.38247  21343313.8764   21343320.2374   21343313.4324
   -442853.04649   2520964.00745  25267629.0504   25267637.1734   25267627.7464
  -8110316.40849   9926811.01046  22883221.0054   22883228.7114   22883220.1974
 -10243240.19449  -5263978.34946  23539674.5514   23539681.9494   23539674.2234
 -16616755.16949  -3334830.82747  21373633.8084   21373640.7624   21373632.7124
 97  8 18  0 38  0.0000000  0  9G 1G14G22G25G29G 5G21G30G15
 -15383019.88749   6232660.30047  21673646.9484   21673653.8374   21673646.0874
 -10689442.46049  -7904161.24746  23180845.0744   23180852.4464   23180844.4354
   -543704.49149   -186444.00444  25495821.9854
 -23842526.98949  -7188226.90447  20621041.4984   20621047.5354   20621040.9404
 -17942954.31249  -6874120.15147  21337337.1014   21337343.5114   21337336.6594
   -380968.15349   2569185.98945  25279405.2854   25279413.4864   25279404.0034
  -8008052.65749  10006497.02546  22902681.2234   22902688.8574   22902680.3444
 -10242301.56549  -5263246.95746  23539853.2714   23539860.4734   23539852.8794
 -16586662.12549  -3311381.71247  21379360.3144   21379367.2484   21379359.2084
 97  8 18  0 38 30.0000000  0  9G 1G14G22G25G29G 5G21G30G15
 -15318485.51049   6282946.82147  21685927.4374   21685934.3154   21685926.5864
 -10772185.24449  -7968636.11146  23165099.6654   23165107.0184   23165099.0064
   -636337.96449   -258625.76545  25478186.5854   25478194.1664   25478184.6504
 -23854613.55649  -7197644.99947  20618741.4884   20618747.5304   20618740.9334
 -17974172.75849  -6898446.20447  21331396.4174   21331402.8444   21331395.9924
   -318670.94949   2617729.25045  25291259.9744   25291268.3084   25291258.5264
  -7905515.38649  10086396.17046  22922193.2704   22922201.0684   22922192.4174
 -10240822.70949  -5262094.59146  23540134.6024   23540141.8584   23540134.2344
 -16555966.29349  -3287462.89547  21385201.5664   21385208.4884   21385200.4444
 97  8 18  0 39  0.0000000  0  9G 1G14G22G25G29G 5G21G30G15
 -15253799.40749   6333351.56547  21698236.8144   21698243.6724   21698235.9444
 -10854791.69249  -8033004.73746  23149380.0814   23149387.5064   23149379.4194
   -729159.61849   -330954.18645  25460523.1014   25460531.4644   25460521.3584
 -23866211.27449  -7206682.17947  20616534.4994   20616540.5534   20616533.9314
 -18005211.07549  -6922631.90747  21325490.0064   21325496.4504   21325489.5614
   -255940.03848   2666610.44145  25303197.3214   25303205.4944   25303195.8724
  -7802679.42149  10166528.06446  22941762.2854   22941770.1614   22941761.4194
 -10238780.04649  -5260502.91546  23540523.3124   23540530.4914   23540522.8954
 -16524654.63449  -3263064.21747  21391159.9834   21391166.8784   21391158.8494
 97  8 18  0 39 30.0000000  0  9G 1G14G22G25G29G 5G21G30G15
 -15188947.08449   6383885.82047  21710577.8144   21710584.6514   21710576.9404
 -10937235.15149  -8097246.37746  23133691.5584   23133698.9984   23133690.9594
   -822154.03549   -403417.24045  25442826.5994   25442835.1944   25442824.4694
 -23877307.90549  -7215328.90947  20614422.8924   20614428.9514   20614422.3234
 -18036049.69349  -6946661.99747  21319621.5814   21319628.0284   21319621.1534
   -192765.04348   2715837.69345  25315219.0174   25315227.3374   25315217.6104
  -7699520.48249  10246911.63246  22961392.8924   22961400.6504   22961391.9894
 -10236153.36149  -5258456.15146  23541023.1944   23541030.3714   23541022.7394
 -16492706.19449  -3238169.34547  21397239.6054   21397246.4854   21397238.4804
 97  8 18  0 40  0.0000000  0  9G 1G14G22G25G29G 5G21G30G15
 -15123938.17149   6434542.11447  21722948.6114   21722955.4114   21722947.6964
 -11019526.85049  -8161369.75746  23118032.0344   23118039.3564   23118031.3704
   -915302.42048   -476000.24045  25425100.8384   25425109.4094   25425098.8904
 -23887906.33649  -7223587.41747  20612406.0824   20612412.1554   20612405.5094
 -18066689.14649  -6970536.88147  21313791.0924   21313797.5514   21313790.6604
   -129140.05148   2765415.58345  25327326.4364   25327334.6034   25327324.9984
  -7596021.35649  10327560.28445  22981088.1174   22981095.7914   22981087.2344
 -10232957.07649  -5255965.54646  23541631.4594   23541638.5954   23541631.1284
 -16460117.97449  -3212775.93047  21403440.9514   21403447.8204   21403439.8274
 97  8 18  0 40 30.0000000  0  9G 1G14G22G25G29G 5G21G30G15
 -15058757.25749   6485332.42047  21735352.1284   21735358.9614   21735351.2404
 -11101637.69549  -8225352.22246  23102406.8804   23102414.1574   23102406.1974
  -1008577.52648   -548681.98145  25407351.0914   25407359.9464   25407349.1994
 -23897990.44749  -7231445.16447  20610487.0924   20610493.2034   20610486.5374
 -18097105.58849  -6994238.00247  21308003.0364   21308009.4974   21308002.5974
    -65043.39248   2815361.00345  25339523.6584   25339531.9414   25339522.3254
  -7492184.82249  10408471.84945  23000847.6444   23000855.2154   23000846.7254
 -10229186.97649  -5253027.81446  23542348.9034   23542356.0234   23542348.5514
 -16426873.22149  -3186870.93647  21409767.2344   21409774.0654   21409766.0874
 97  8 18  0 41  0.0000000  0  9G 1G14G22G25G29G 5G21G30G15
 -14993417.61049   6536246.42347  21747785.8664   21747792.7324   21747784.9824
 -11183594.26749  -8289214.46046  23086811.0634   23086818.3574   23086810.3544
  -1101991.55148   -621471.93744  25389575.1304   25389583.5634   25389573.0954
 -23907597.99149  -7238931.55647  20608658.8354   20608664.9794   20608658.2934
 -18127313.99449  -7017777.01247  21302254.5654   21302261.0184   21302254.1164
      -492.77148   2865660.11144  25351807.3824   25351815.5424   25351805.7814
  -7388055.02649  10489611.91746  23020662.9844   23020670.5284   23020662.0274
 -10224867.45249  -5249661.96446  23543170.9104   23543177.9964   23543170.5524
 -16392996.73749  -3160473.67947  21416213.7214   21416220.5464   21416212.5644
 97  8 18  0 41 30.0000000  0  9G 1G14G22G25G29G 5G21G30G15
 -14927932.45849   6587273.80047  21760247.2964   21760254.1604   21760246.3754
 -11265434.53049  -8352986.07846  23071237.4234   23071244.6394   23071236.6654
  -1195549.98148   -694374.46144  25371771.3684   25371779.4534   25371769.5604
 -23916749.42049  -7246062.53847  20606917.3924   20606923.5114   20606916.8294
 -18157317.69949  -7041156.51747  21296545.1034   21296551.5144   21296544.6294
     64497.99548   2916302.24344  25364174.7754   25364183.0114   25364173.0194
  -7283666.15549  10570953.86845  23040527.4974   23040535.0754   23040526.5764
 -10220021.08549  -5245885.59046  23544093.1294   23544100.2554   23544092.8444
 -16358508.10549  -3133599.42247  21422776.6964   21422783.5154   21422775.5714
 97  8 18  0 42  0.0000000  0  9G 1G14G22G25G29G 5G21G30G15
 -14862280.02749   6638431.53147  21772740.5154   21772747.3804   21772739.6164
 -11347157.71949  -8416666.48046  23055686.0954   23055693.2634   23055685.2714
  -1289235.78848   -767376.21544  25353943.2564   25353951.2684   25353941.3524
 -23925416.21949  -7252815.88247  20605268.1144   20605274.2704   20605267.5704
 -18187093.09049  -7064358.11447  21290879.0474   21290885.4084   21290878.5714
    129967.30348   2967317.26045  25376632.8724   25376641.7114   25376631.2244
  -7179010.92549  10652503.38245  23060442.8074   23060450.2584   23060441.8484
 -10214615.63849  -5241673.55746  23545121.8154   23545128.8414   23545121.4814
 -16323387.61949  -3106232.81147  21429459.9724   21429466.6994   21429458.8144
 97  8 18  0 42 30.0000000  0  9G 1G14G22G25G29G 5G21G30G15
 -14796475.79949   6689707.54047  21785262.7164   21785269.5634   21785261.8074
 -11428777.89849  -8480266.58846  23040154.3044   23040161.4984   23040153.5134
  -1383078.60449   -840500.37444  25336085.4754   25336094.0244   25336083.8534
 -23933606.24149  -7259197.72147  20603709.6394   20603715.7564   20603709.0894
 -18216656.00249  -7087394.14647  21285253.4144   21285259.7674   21285252.9564
    195891.80248   3018686.97745  25389177.9784   25389186.3874   25389176.3494
  -7074120.45349  10734236.19245  23080402.8624   23080410.3374   23080401.8114
 -10208648.07849  -5237023.52846  23546257.4214   23546264.5234   23546257.0954
 -16287653.77449  -3078388.26547  21436259.8834   21436266.5974   21436258.7274
 97  8 18  0 43  0.0000000  0  9G 1G14G22G25G29G 5G21G30G15
 -14730525.15849   6741097.64247  21797812.7594   21797819.5444   21797811.8194
 -11510300.29949  -8543790.50846  23024641.0154   23024648.3004   23024640.2834
  -1477077.37449   -913746.07444  25318198.0414   25318206.5884   25318196.5494
 -23941315.13449  -7265204.64547  20602242.6544   20602248.7654   20602242.1054
 -18246011.76849  -7110268.75847  21279667.2074   21279673.5724   21279666.7334
    262271.93049   3070411.74545  25401809.8464   25401817.9044   25401808.2344
  -6968980.58449  10816163.32346  23100410.2594   23100417.8254   23100409.3004
 -10202097.40849  -5231919.11846  23547503.9194   23547511.0714   23547503.5934
 -16251302.60549  -3050062.68447  21443177.3074   21443183.9934   21443176.1484
 97  8 18  0 43 30.0000000  0  9G 1G14G22G25G29G 5G21G30G15
 -14664429.57849   6792600.68447  21810390.3144   21810397.1474   21810389.4024
 -11591739.15149  -8607249.33446  23009143.7004   23009150.9744   23009142.9824
  -1571235.32049   -987115.76544  25300280.1564   25300288.5784   25300278.6924
 -23948529.26149  -7270826.03747  20600869.8714   20600875.9684   20600869.3154
 -18275168.18749  -7132988.03047  21274118.9034   21274125.2614   21274118.4344
    329102.90149   3122487.83345  25414527.3604   25414535.5104   25414525.7704
  -6863581.83149  10898292.20946  23120467.0184   23120474.4904   23120466.0744
 -10194959.91549  -5226357.43746  23548862.2044   23548869.3524   23548861.8724
 -16214338.07249  -3021259.15147  21450211.4054   21450218.0604   21450210.2394
 97  8 18  0 44  0.0000000  0  9G 1G14G22G25G29G 5G21G30G15
 -14598168.73249   6844232.49747  21822999.3524   21823006.1384   21822998.4434
 -11673058.90749  -8670615.35346  22993669.0174   22993676.2594   22993668.2844
  -1665523.06849  -1060586.65344  25282337.5974   25282346.0174   25282335.8954
 -23955219.97649  -7276039.58547  20599596.6334   20599602.7634   20599596.1064
 -18304102.27049  -7155534.07147  21268612.8954   21268619.2474   21268612.4264
    396391.60249   3174920.56445  25427331.8324   25427340.2204   25427330.3354
  -6757904.80749  10980637.93645  23140576.6434   23140584.1134   23140575.6734
 -10187217.68349  -5220324.55046  23550335.5234   23550342.6994   23550335.1634
 -16176743.52449  -2991964.70947  21457365.3704   21457372.0924   21457364.1964
 97  8 18  0 44 30.0000000  0  9G 1G14G22G25G29G 5G21G30G15
 -14531742.16649   6895993.44347  21835639.9394   21835646.7274   21835639.0024
 -11754240.33849  -8733873.60446  22978220.6084   22978227.8834   22978219.9494
  -1759936.98249  -1134155.85644  25264371.2004   25264379.6064   25264369.4824
 -23961401.61549  -7280856.44647  20598420.3584   20598426.4614   20598419.8014
 -18332824.87049  -7177915.31647  21263147.1534   21263153.5304   21263146.6904
    464118.82649   3227695.02445  25440219.8784   25440228.2944   25440218.5634
  -6651961.36549  11063191.22345  23160736.9244   23160744.5964   23160736.0064
 -10178893.19549  -5213837.94846  23551919.5114   23551926.8094   23551919.1754
 -16138531.39049  -2962189.03147  21464636.8634   21464643.5804   21464635.6924
 97  8 18  0 45  0.0000000  0  9G 1G14G22G25G29G 5G21G30G15
 -14465144.22249   6947887.94347  21848313.0714   21848319.8444   21848312.1384
 -11835277.33649  -8797019.28446  22962799.7234   22962807.0374   22962799.0854
  -1854463.28149  -1207812.68544  25246383.3924   25246391.8634   25246381.8534
 -23967076.19649  -7285278.19647  20597340.5084   20597346.6244   20597339.9484
 -18361331.83849  -7200128.53347  21257722.4574   21257728.8084   21257721.9854
    532274.66949   3280803.45645  25453189.4194   25453197.9764   25453187.9654
  -6545754.38249  11145949.88146  23180947.4824   23180955.2274   23180946.5654
 -10170006.23849  -5206913.03746  23553610.6284   23553617.9644   23553610.2554
 -16099707.21349  -2931936.43847  21472024.8414   21472031.5904   21472023.7074
 97  8 18  0 45 30.0000000  0  9G 1G14G22G25G29G 5G21G30G15
 -14398350.64349   6999934.88047  21861023.4334   21861030.2254   21861022.5294
 -11916146.40749  -8860034.12546  22947410.8624   22947418.1454   22947410.2194
  -1949091.98449  -1281549.27444  25228376.0264   25228384.5504   25228374.6014
 -23972217.44349  -7289284.35647  20596362.1394   20596368.2584   20596361.5954
 -18389612.91049  -7222165.72347  21252340.7704   21252347.0444   21252340.2914
    600849.27149   3334238.17845  25466238.7234   25466247.2914   25466237.4004
  -6439281.43949  11228915.79345  23201208.6034   23201216.3784   23201207.6684
 -10160556.33649  -5199549.48746  23555408.8124   23555416.1924   23555408.4804
 -16060265.43049  -2901202.58847  21479530.3244   21479537.1294   21479529.2114
 97  8 18  0 46  0.0000000  0  9G 1G14G22G25G29G 5G21G30G15
 -14331365.06249   7052131.43347  21873770.3044   21873777.1294   21873769.4154
 -11996827.54549  -8922902.53246  22932057.7444   22932065.0164   22932057.0684
  -2043824.56449  -1355366.75944  25210348.9584   25210357.3544   25210347.6494
 -23976824.36349  -7292874.16247  20595485.5234   20595491.6224   20595484.9524
 -18417670.40049  -7244028.69947  21247001.5914   21247007.8334   21247001.1174
    669830.23049   3387989.56045  25479365.4664   25479373.9944   25479364.1834
  -6332540.86949  11312090.23545  23221520.6354   23221528.4294   23221519.7364
 -10150547.83449  -5191750.66146  23557313.3784   23557320.7554   23557313.0224
 -16020201.24849  -2869983.75247  21487154.2754   21487161.1274   21487153.1544
 97  8 18  0 46 30.0000000  0  9G 1G14G22G25G29G 5G21G30G15
 -14264205.76049   7104463.34947  21886550.2984   21886557.1554   21886549.4074
 -12077339.10449  -8985638.78746  22916736.9114   22916744.1634   22916736.1844
  -2138672.47149  -1429274.12045  25192300.0044   25192308.3804   25192298.6064
 -23980913.22049  -7296060.28247  20594707.4394   20594713.5514   20594706.8814
 -18445519.01049  -7265728.91247  21241702.1974   21241708.4074   21241701.7264
    739208.18649   3442050.28445  25492567.6774   25492576.0564   25492566.4934
  -6225533.17549  11395472.82445  23241883.5884   23241891.3744   23241882.6294
 -10139987.77849  -5183522.04746  23559322.8354   23559330.2444   23559322.4904
 -15979523.72849  -2838286.99647  21494894.9164   21494901.8344   21494893.8154
 97  8 18  0 47  0.0000000  0  9G 1G14G22G25G29G 5G21G30G15
 -14196895.21349   7156913.12347  21899359.1104   21899365.9754   21899358.1904
 -12157708.13649  -9048263.99846  22901443.2104   22901450.4504   22901442.4924
  -2233654.76349  -1503286.18845  25174225.4844   25174233.8904   25174223.9874
 -23984486.37349  -7298844.55347  20594027.4504   20594033.5664   20594026.9024
 -18473164.63349  -7287270.94547  21236441.4194   21236447.6254   21236440.9284
    808970.28949   3496410.35445  25505842.7844   25505851.1814   25505841.8334
  -6118252.08249  11479068.43745  23262298.4454   23262306.3584   23262297.4774
 -10128887.46549  -5174872.45646  23561435.1934   23561442.6474   23561434.8184
 -15938244.37949  -2806121.28647  21502750.2014   21502757.0034   21502749.0774
 97  8 18  0 47 30.0000000  0  9G 1G14G22G25G29G 5G21G30G15
 -14129441.09449   7209474.77547  21912195.1544   21912202.0704   21912194.2744
 -12237927.98349  -9110772.94846  22886177.8744   22886185.0794   22886177.1594
  -2328767.82549  -1577400.13745  25156125.9224   25156134.4724   25156124.4774
 -23987540.26549  -7301224.20547  20593446.3334   20593452.4514   20593445.7844
 -18500616.90149  -7308662.32147  21231217.4294   21231223.6194   21231216.9544
    879138.06649   3551086.52845  25519195.2384   25519203.7534   25519194.3294
  -6010687.95949  11562884.59145  23282767.1514   23282775.1754   23282766.2264
 -10117239.43049  -5165796.07146  23563651.6754   23563659.1704   23563651.3844
 -15896358.97549  -2773483.32347  21510720.7124   21510727.5404   21510719.5994
 97  8 18  0 48  0.0000000  0  9G 1G14G22G25G29G 5G21G30G15
 -14061849.97849   7262143.17347  21925057.3294   21925064.2634   21925056.4794
 -12317988.18249  -9173157.49046  22870942.9024   22870950.1454   22870942.2164
  -2423997.29049  -1651604.77845  25138004.2084   25138012.7514   25138002.8944
 -23990081.20349  -7303204.14847  20592962.7844   20592968.9134   20592962.2294
 -18527864.52649  -7329894.22247  21226032.3374   21226038.5724   21226031.8544
    949748.91049   3606107.94345  25532632.0084   25532640.7144   25532631.1484
  -5902826.18949  11646932.69045  23303292.6234   23303300.6094   23303291.6864
 -10105024.12749  -5156277.66246  23565976.2434   23565983.7034   23565975.8744
 -15853860.10449  -2740367.32947  21518807.9894   21518814.8434   21518806.8704
 97  8 18  0 48 30.0000000  0  9G 1G14G22G25G29G 5G21G30G15
 -13994128.82949   7314912.89347  21937944.2534   21937951.2114   21937943.3884
 -12397903.53949  -9235429.18346  22855735.4874   22855742.7434   22855734.8044
  -2519343.02549  -1725900.04745  25119860.2094   25119868.7134   25119858.8844
 -23992128.99749  -7304799.83547  20592573.1034   20592579.2644   20592572.5594
 -18554903.18049  -7350963.29947  21220887.0604   21220893.3284   21220886.5564
   1020801.10149   3661473.29245  25546152.7124   25546161.6354   25546152.0974
  -5794684.84049  11731198.64645  23323871.3834   23323879.3294   23323870.3804
 -10092239.74149  -5146315.81246  23568409.1224   23568416.4994   23568408.7504
 -15810762.66549  -2706784.93547  21527009.1624   21527016.0134   21527008.0624
 97  8 18  0 49  0.0000000  0  9G 1G14G22G25G29G 5G21G30G15
 -13926242.71649   7367811.16547  21950862.5564   21950869.5174   21950861.6954
 -12477637.85549  -9297559.79246  22840562.5454   22840569.8014   22840561.8484
  -2614779.24349  -1800265.81845  25101699.0194   25101707.8524   25101697.7764
 -23993661.81149  -7305994.23047  20592281.4534   20592287.6084   20592280.9014
 -18581704.60349  -7371847.51847  21215786.9014   21215793.1644   21215786.3874
   1092311.69949   3717195.83145  25559760.9454   25559769.2684   25559760.1074
  -5686254.30049  11815689.93545  23344505.0034   23344512.9384   23344504.0764
 -10078856.29049  -5135887.17046  23570955.9254   23570963.2714   23570955.5274
 -15767043.07449  -2672717.73647  21535328.7414   21535335.6024   21535327.6234
 97  8 18  0 49 30.0000000  0  9G 1G14G22G25G29G 5G21G30G15
 -13858225.09849   7420811.90447  21963805.9314   21963812.8494   21963805.0644
 -12557230.42249  -9359579.95246  22825416.5104   22825423.8504   22825415.8244
  -2710337.48549  -1874726.64945  25083514.6184   25083523.6884   25083513.5654
 -23994732.90549  -7306828.84247  20592077.5844   20592083.7434   20592077.0424
 -18608316.06949  -7392583.71647  21210722.9194   21210729.2084   21210722.3924
   1164238.35349   3773242.60144  25573448.1954   25573456.9364   25573447.2024
  -5577598.16349  11900357.02345  23365181.7044   23365189.5124   23365180.8124
 -10064900.93749  -5125012.86646  23573611.5074   23573618.8774   23573611.1394
 -15722745.97149  -2638200.52747  21543758.2094   21543765.0444   21543757.1074
 97  8 18  0 50  0.0000000  0  9G 1G14G22G25G29G 5G21G30G15
 -13790029.97849   7473950.96347  21976783.0894   21976789.9414   21976782.1904
 -12636648.47049  -9421464.12246  22810303.7894   22810311.1234   22810303.0464
  -2805966.14748  -1949242.36845  25065317.1464   25065326.1554   25065316.0544
 -23995313.89549  -7307281.56147  20591967.0154   20591973.1884   20591966.4784
 -18634669.31149  -7413118.70347  21205708.0364   21205714.3444   21205707.5444
   1236603.07649   3829630.71744  25587218.9314   25587227.6794   25587217.9084
  -5468682.87549  11985226.05345  23385907.7304   23385915.4104   23385906.8244
 -10050329.19949  -5113658.25846  23576384.4554   23576391.7654   23576384.0494
 -15677830.53649  -2603201.49947  21552305.3684   21552312.2254   21552304.2504
 97  8 18  0 50 30.0000000  0  9G 1G14G22G25G29G 5G21G30G15
 -13721659.45149   7527226.69447  21989793.5704   21989800.4504   21989792.6534
 -12715903.33349  -9483221.13146  22795222.0624   22795229.4454   22795221.3574
  -2901664.86449  -2023812.66345  25047106.3404   25047115.2464   25047105.0914
 -23995411.23849  -7307357.41047  20591948.5354   20591954.6864   20591947.9714
 -18660772.92849  -7433459.18247  21200740.7154   21200746.9714   21200740.1934
   1309377.38449   3886338.01144  25601067.4254   25601075.6874   25601065.9724
  -5359524.68549  12070284.34445  23406679.8614   23406687.5184   23406678.9834
 -10035164.00649  -5101841.22746  23579270.3004   23579277.5564   23579269.9314
 -15632305.02949  -2567727.09847  21560968.5834   21560975.4584   21560967.4734
 97  8 18  0 51  0.0000000  0  9G 1G14G22G25G29G 5G21G30G15
 -13653143.37549   7580615.84347  22002831.7454   22002838.6464   22002830.8074
 -12795014.10049  -9544865.86146  22780167.7314   22780175.1624   22780167.0494
  -2997465.53349  -2098462.39845  25028876.0384   25028884.6234   25028874.5204
 -23995039.58549  -7307067.80747  20592019.2714   20592025.3884   20592018.6924
 -18686665.06549  -7453634.86247  21195813.6114   21195819.9154   21195813.0944
   1382539.13149   3943347.19944  25614989.7644   25614997.6094   25614988.3714
  -5250144.05749  12155515.99245  23427494.3754   23427501.8134   23427493.4244
 -10019441.54449  -5089589.96846  23582262.2464   23582269.4794   23582261.9304
 -15586196.66149  -2531798.52047  21569742.7574   21569749.6684   21569741.6194
 97  8 18  0 51 30.0000000  0  9G 1G14G22G25G29G 5G21G30G15
 -13584482.21149   7634118.04747  22015897.4644   22015904.4514   22015896.5724
 -12873965.90549  -9606386.71346  22765143.6914   22765151.1024   22765142.9894
  -3093357.51249  -2173183.28445  25010628.4054   25010636.8864   25010626.9234
 -23994181.17249  -7306398.90747  20592182.6224   20592188.7544   20592182.0394
 -18712333.76849  -7473636.44247  21190928.9954   21190935.3754   21190928.4864
   1456109.09449   4000674.48944  25628989.5434   25628997.8674   25628987.8724
  -5140520.51549  12240936.93645  23448355.1574   23448362.5344   23448354.1624
 -10003156.03649  -5076899.95846  23585361.2844   23585368.5374   23585360.9554
 -15539498.19549  -2495410.11547  21578629.1704   21578636.1554   21578628.0764
 97  8 18  0 52  0.0000000  0  9G 1G14G22G25G29G 5G21G30G15
 -13515691.27849   7687721.36747  22028987.9114   22028994.9654   22028987.0204
 -12952758.50749  -9667783.52746  22750150.0104   22750157.3504   22750149.2894
  -3189351.51349  -2247983.71445  24992361.1724   24992369.9634   24992359.8184
 -23992831.11849  -7305346.91447  20592439.5394   20592445.6794   20592438.9514
 -18737775.91649  -7493461.48847  21186087.4754   21186093.8784   21186086.9874
   1530076.99949   4058311.82844  25643064.9894   25643073.4714   25643063.9464
  -5030652.69049  12326548.19645  23469262.3004   23469269.7144   23469261.3584
  -9986322.95649  -5063783.26746  23588564.5124   23588571.8014   23588564.1374
 -15492214.79949  -2458565.92747  21587626.9484   21587633.9514   21587625.8184
 97  8 18  0 52 30.0000000  0  9G 1G14G22G25G29G 5G21G30G15
 -13446732.41649   7741455.53647  22042110.3754   22042117.4054   22042109.4954
 -13031355.14649  -9729027.64646  22735193.5654   22735200.7894   22735192.8334
  -3285433.15449  -2322852.45145  24974077.5694   24974086.1504   24974076.2384
 -23990941.17849  -7303874.23047  20592799.1294   20592805.3484   20592798.5724
 -18762975.02549  -7513097.15347  21181292.2204   21181298.6494   21181291.7274
   1604480.35349   4116288.45044  25657223.3004   25657232.3174   25657222.3564
  -4920515.93449  12412369.02045  23490220.5664   23490228.1754   23490219.7594
  -9968904.66249  -5050210.56746  23591879.0404   23591886.3144   23591878.6924
 -15444316.11649  -2421242.28647  21596741.7704   21596748.8344   21596740.6584
 97  8 18  0 53  0.0000000  0  9G 1G14G22G25G29G 5G21G30G15
 -13377661.04249   7795277.38347  22055254.2214   22055261.1834   22055253.2964
 -13109804.29549  -9790156.83246  22720265.1884   22720272.3954   22720264.4784
  -3381650.99849  -2397827.33045  24955767.9384   24955776.3904   24955766.5224
 -23988564.69049  -7302022.41547  20593251.3774   20593257.6304   20593250.8094
 -18787976.36449  -7532578.70847  21176534.6194   21176541.0414   21176534.1114
   1679270.02548   4174566.08944  25671455.4184   25671464.6964   25671454.0014
  -4810162.45549  12498358.73045  23511220.2194   23511227.8064   23511219.3124
  -9950940.69249  -5036212.66046  23595297.5104   23595304.7594   23595297.1754
 -15395852.84949  -2383478.71647  21605964.0304   21605971.1134   21605962.9034
 97  8 18  0 53 30.0000000  0  9G 1G14G22G25G29G 5G21G30G15
 -13308453.07549   7849205.66646  22068424.0434   22068431.0164   22068423.0994
 -13188085.00249  -9851154.75346  22705368.8594   22705376.0224   22705368.1504
  -3477973.57349  -2472883.83145  24937438.2214   24937446.6524   24937436.9524
 -23985686.08049  -7299779.33847  20593799.1744   20593805.3854   20593798.6004
 -18812753.10649  -7551885.26047  21171819.7404   21171826.1794   21171819.2554
   1754466.62848   4233160.80844  25685765.0084   25685774.0114   25685763.9654
  -4699575.25349  12584530.55645  23532264.2984   23532271.8994   23532263.3934
  -9932392.06249  -5021759.18246  23598827.2404   23598834.3904   23598826.8624
 -15346798.37849  -2345254.46447  21615298.7574   21615305.8864   21615297.6514
 97  8 18  0 54  0.0000000  0  9G 1G14G22G25G29G 5G21G30G15
 -13239091.36349   7903253.74146  22081623.1274   22081630.1414   22081622.2314
 -13266182.52349  -9912009.95446  22690507.3864   22690514.5634   22690506.6594
  -3574382.99449  -2548008.00045  24919092.0854   24919100.4604   24919090.7634
 -23982307.87149  -7297146.96847  20594442.0394   20594448.2504   20594441.4754
 -18837311.16949  -7571021.41847  21167146.4814   21167152.8984   21167146.0004
   1830070.09048   4292072.56444  25700151.3964   25700160.3814   25700151.1224
  -4588747.26449  12670889.96945  23553354.0874   23553361.8434   23553353.1634
  -9913241.43649  -5006836.62146  23602471.4314   23602478.6574   23602471.0394
 -15297142.70149  -2306561.74747  21624747.9384   21624755.0764   21624746.8294
 97  8 18  0 54 30.0000000  0  9G 1G14G22G25G29G 5G21G30G15
 -13169603.98949   7957399.73546  22094846.1204   22094853.1324   22094845.2474
 -13344111.30249  -9972733.65646  22675677.9434   22675685.1344   22675677.2664
  -3670892.65549  -2623210.28545  24900726.8774   24900735.2654   24900725.5464
 -23978470.32749  -7294156.67147  20595172.2804   20595178.4864   20595171.7194
 -18861703.09549  -7590028.11547  21162504.8994   21162511.2454   21162504.3834
   1906050.21148   4351277.82344  25714610.0774   25714619.2914   25714610.2374
  -4477704.90649  12757416.43645  23574484.6964   23574492.5974   23574483.7854
  -9893516.31649  -4991466.39646  23606224.9924   23606232.2404   23606224.6114
 -15246918.84249  -2267426.28147  21634305.2784   21634312.3784   21634304.1734
 97  8 18  0 55  0.0000000  0  9G 1G14G22G25G29G 5G21G30G15
 -13099965.06449   8011663.82146  22108097.9894   22108104.9914   22108097.0834
 -13421825.44149 -10033290.10646  22660889.4604   22660896.5844   22660888.7144
  -3767440.43349  -2698442.27545  24882354.3774   24882362.7034   24882353.0264
 -23974140.94549  -7290783.12247  20595996.1434   20596002.3664   20595995.5994
 -18885898.47649  -7608881.65747  21157900.6594   21157906.9934   21157900.1604
   1982439.11348   4410801.61544  25729146.2954   25729155.5624   25729146.2744
  -4366397.97849  12844149.07845  23595665.6714   23595673.6144   23595664.8204
  -9873193.75549  -4975630.63546  23610092.1614   23610099.4734   23610091.8234
 -15196095.69849  -2227823.84247  21643976.6574   21643983.7384   21643975.5184
 97  8 18  0 55 30.0000000  0  9G 1G14G22G25G29G 5G21G30G15
 -13030187.33749   8066036.07146  22121376.2214   22121383.2564   22121375.3314
 -13499335.05449 -10093687.18446  22646139.8504   22646146.9674   22646139.1644
  -3864030.97949  -2773707.60945  24863973.6694   24863982.0174   24863972.4004
 -23969344.88049  -7287045.92747  20596908.8054   20596914.9994   20596908.2674
 -18909926.61949  -7627604.88347  21153328.2804   21153334.5954   21153327.7964
   2059211.85548   4470624.46744  25743755.4334   25743764.7744   25743755.9094
  -4254841.16449  12931076.45245  23616894.2994   23616902.2624   23616893.3854
  -9852305.60749  -4959354.15646  23614066.9754   23614074.3794   23614066.6524
 -15144701.91449  -2187776.75347  21653756.5594   21653763.6334   21653755.4074
 97  8 18  0 56  0.0000000  0  9G 1G14G22G25G29G 5G21G30G15
 -12960253.20949   8120530.18547  22134684.2744   22134691.3024   22134683.3984
 -13576623.81749 -10153912.18246  22631432.3254   22631439.4224   22631431.6264
  -3960640.41149  -2848987.64645  24845589.4174   24845597.7414   24845588.2074
 -23964058.39149  -7282926.58047  20597914.7324   20597920.9394   20597914.2114
 -18933766.26049  -7646181.23247  21148791.7814   21148798.0324   21148791.2764
   2136375.30448   4530751.80144  25758439.1854   25758448.1344   25758439.6734
  -4143013.85149  13018214.58245  23638174.4724   23638182.3054   23638173.4534
  -9830853.22249  -4942638.00846  23618149.1964   23618156.6754   23618148.9054
 -15092729.39949  -2147278.70547  21663646.5874   21663653.6744   21663645.4504
 97  8 18  0 56 30.0000000  0  9G 1G14G22G25G29G 5G21G30G15
 -12890128.63149   8175172.69647  22148028.5994   22148035.6044   22148027.7294
 -13653672.97749 -10213950.47046  22616770.3724   22616777.4144   22616769.6764
  -4057228.71449  -2924251.19745  24827209.3204   24827217.3594   24827207.9824
 -23958233.68349  -7278387.84547  20599023.1504   20599029.3474   20599022.6134
 -18957361.60149  -7664567.21247  21144301.7644   21144307.9734   21144301.2554
   2213975.05048   4591219.12644  25773205.8034   25773214.8664   25773206.0524
  -4030877.76349  13105593.29545  23659513.2414   23659521.0654   23659512.3204
  -9808809.44849  -4925461.04946  23622343.9664   23622351.5554   23622343.7114
 -15040143.59049  -2106302.76647  21673653.3594   21673660.4334   21673652.2434
 97  8 18  0 57  0.0000000  0  9G 1G14G22G25G29G 5G21G30G15
 -12819874.43749   8229916.21547  22161397.6074   22161404.5674   22161396.6954
 -13730571.33649 -10273871.26246  22602137.1104   22602144.1124   22602136.3974
  -4153871.64449  -2999557.31245  24808818.7294   24808826.7234   24808817.2534
 -23951943.10349  -7273486.09347  20600220.1914   20600226.3774   20600219.6554
 -18980762.07749  -7682801.34847  21139848.7724   21139855.0154   21139848.3074
   2291937.24948   4651968.86244  25788041.4014   25788050.7864   25788041.3914
  -3918503.66949  13193157.48945  23680897.2494   23680905.1734   23680896.4164
  -9786235.15949  -4907870.69446  23626639.7664   23626647.2714   23626639.4284
 -14987013.65549  -2064902.83047  21683763.6844   21683770.7004   21683762.5634
 97  8 18  0 57 30.0000000  0  9G 1G14G22G25G29G 5G21G30G15
 -12749447.54149   8284794.30446  22174799.4084   22174806.3984   22174798.5174
 -13807284.96049 -10333648.09746  22587538.9494   22587545.9694   22587538.2534
  -4250559.86249  -3074898.74545  24790419.5564   24790427.4644   24790418.0714
 -23945149.69549  -7268192.52347  20601512.9204   20601519.1324   20601512.4004
 -19003923.00149  -7700848.81447  21135441.4384   21135447.6474   21135440.9694
   2370300.98649   4713031.47044  25802953.5034   25802962.9314   25802953.5764
  -3805863.82949  13280928.77645  23702332.0514   23702339.8764   23702331.2474
  -9763074.91849  -4889823.75646  23631046.9874   23631054.5784   23631046.6974
 -14933300.72449  -2023048.61647  21693984.9314   21693991.9004   21693983.8174
 97  8 18  0 58  0.0000000  0  9G 1G14G22G25G29G 5G21G30G15
 -12678858.83849   8339798.47246  22188232.0134   22188238.9694   22188231.0874
 -13883827.42549 -10393291.55446  22572973.3804   22572980.4564   22572972.6864
  -4347326.46049  -3150301.21745  24772005.3634   24772013.3094   24772003.9984
 -23937850.73549  -7262505.02547  20602901.8634   20602908.0604   20602901.3484
 -19026841.66149  -7718707.51147  21131080.0974   21131086.3714   21131079.6284
   2449065.60849   4774406.48045  25817942.1264   25817951.4244   25817941.9414
  -3692970.53049  13368897.56845  23723815.0874   23723822.7274   23723814.2454
  -9739325.92949  -4871318.05146  23635566.2104   23635573.8564   23635565.9484
 -14879003.27949  -1980738.94647  21704317.4414   21704324.3854   21704316.3344
 97  8 18  0 58 30.0000000  0  9G 1G14G22G25G29G 5G21G30G15
 -12608126.87149   8394914.28346  22201691.8674   22201698.8234   22201690.9394
 -13960204.07749 -10452805.81946  22558439.3494   22558446.4354   22558438.6484
  -4444190.24749  -3225779.42645  24753572.7524   24753580.7804   24753571.3694
 -23930073.01349  -7256444.46147  20604381.9354   20604388.1074   20604381.4144
 -19049540.90549  -7736395.23347  21126760.5454   21126766.8414   21126760.0984
   2528220.72548   4836085.80145  25833004.8124   25833014.2304   25833004.4344
  -3579853.05349  13457041.01645  23745340.5974   23745348.1664   23745339.7934
  -9714998.54249  -4852361.64846  23640195.5694   23640203.2274   23640195.2834
 -14824134.05049  -1937983.72247  21714758.6774   21714765.6834   21714757.5764
 97  8 18  0 59  0.0000000  0  9G 1G14G22G25G29G 5G21G30G15
 -12537270.33349   8450127.15346  22215175.4424   22215182.4084   22215174.5154
 -14036411.04149 -10512187.85546  22543937.6144   22543944.7474   22543936.9474
  -4541175.71449  -3301352.40845  24735116.8074   24735124.7934   24735115.5764
 -23921833.54949  -7250024.09947  20605949.8414   20605956.0374   20605949.3184
 -19072044.24349  -7753930.30047  21122478.3474   21122484.6064   21122477.8834
   2607737.68849   4898047.04245  25848136.4184   25848145.8864   25848135.9684
  -3466545.01249  13545332.98345  23766902.3674   23766910.0654   23766901.6474
  -9690105.63949  -4832964.57946  23644932.5024   23644940.1554   23644932.1744
 -14768712.74549  -1894798.31047  21725305.0184   21725312.0034   21725303.9254
 97  8 18  0 59 30.0000000  0  9G 1G14G22G25G29G 5G21G30G15
 -12466279.91449   8505444.35046  22228684.4544   22228691.4494   22228683.5334
 -14112419.03349 -10571414.84146  22529473.7404   22529480.8954   22529473.0414
  -4638265.19049  -3377006.44445  24716641.3644   24716649.0884   24716640.0764
 -23913102.04449  -7243220.32947  20607611.3714   20607617.5554   20607610.8384
 -19094326.80549  -7771293.32847  21118238.0744   21118244.3574   21118237.6384
   2687636.10449   4960305.54045  25863340.7874   25863350.2254   25863340.2524
  -3353046.97549  13633772.99945  23788500.3294   23788508.0374   23788499.5744
  -9664633.89249  -4813116.47546  23649779.6044   23649787.2614   23649779.2994
 -14712721.48749  -1851168.77047  21735959.8044   21735966.8254   21735958.7194
 97  8 18  1  0  0.0000000  0  9G 1G14G22G25G29G 5G21G30G15
 -12395167.07149   8560856.94446  22242216.7544   22242223.8264   22242215.8444
 -14188232.10149 -10630489.94946  22515046.8774   22515054.1564   22515046.2484
  -4735439.44049  -3452726.54945  24698149.7664   24698157.5654   24698148.4084
 -23903892.15549  -7236043.79447  20609363.9644   20609370.1504   20609363.4254
 -19116397.62849  -7788491.36947  21114038.1394   21114044.3734   21114037.6764
   2767900.15649   5022848.93745  25878614.7014   25878623.8854   25878614.1084
  -3239376.76749  13722347.18445  23810131.1224   23810138.7604   23810130.3204
  -9638603.93849  -4792833.39346  23654732.8824   23654740.5884   23654732.6294
 -14656169.77049  -1807102.50847  21746721.2464   21746728.2704   21746720.1494
 97  8 18  1  0 30.0000000  0  9G 1G14G22G25G29G 5G21G30G15
 -12323926.38849   8616369.15946  22255773.3614   22255780.5094   22255772.4394
 -14263840.80049 -10689405.79846  22500659.0134   22500666.3114   22500658.3494
  -4832667.34249  -3528488.46745  24679647.7214   24679655.5084   24679646.3874
 -23894191.10049  -7228484.53247  20611210.0064   20611216.1924   20611209.4574
 -19138250.46049  -7805519.54347  21109879.6284   21109885.8974   21109879.1654
   2848523.55749   5085672.36245  25893956.9614   25893966.1284   25893956.2564
  -3125526.23749  13811061.85645  23831796.2064   23831803.6994   23831795.3524
  -9612007.42849  -4772108.84746  23659794.0774   23659801.7264   23659793.7954
 -14599060.84249  -1762602.06047  21757588.6984   21757595.7944   21757587.6054
 97  8 18  1  1  0.0000000  0  9G 1G14G22G25G29G 5G21G30G15
 -12252552.86649   8671984.88746  22269355.2604   22269362.4164   22269354.3474
 -14339243.05749 -10748160.78946  22486310.4134   22486317.7184   22486309.7524
  -4929931.42549  -3604278.57145  24661138.9254   24661146.7924   24661137.6804
 -23883979.00549  -7220527.04947  20613153.2964   20613159.4904   20613152.7414
 -19159873.53249  -7822368.68047  21105764.8714   21105771.1864   21105764.4234
   2929504.51949   5148774.42645  25909367.2474   25909376.1984   25909366.4894
  -3011477.00049  13899931.35645  23853499.0784   23853506.5784   23853498.2574
  -9584840.99949  -4750940.19846  23664963.7934   23664971.3074   23664963.4474
 -14541393.43649  -1717666.43447  21768562.4674   21768569.5804   21768561.3594
 97  8 18  1  1 30.0000000  0  9G 1G14G22G25G29G 5G21G30G15
 -12181038.18249   8727710.60946  22282964.0434   22282971.2444   22282963.1064
 -14414422.26049 -10806741.96846  22472004.2884   22472011.6194   22472003.6264
  -5027205.83949  -3680076.72345  24642628.3034   24642636.1544   24642626.9644
 -23873249.30649  -7212166.24647  20615195.0704   20615201.2814   20615194.5284
 -19181255.50349  -7839029.95147  21101696.0014   21101702.3614   21101695.5304
   3010855.21249   5212164.56845  25924847.7304   25924856.9334   25924846.9714
  -2897201.21949  13988977.39645  23875245.0044   23875252.6694   23875244.2324
  -9557091.43949  -4729317.17646  23670244.3804   23670251.8844   23670244.0414
 -14483158.37349  -1672288.47647  21779644.2414   21779651.3914   21779643.1274
 97  8 18  1  2  0.0000000  0  9G 1G14G22G25G29G 5G21G30G15
 -12109396.49049   8783535.29246  22296597.0354   22296604.1334   22296596.1084
 -14489376.65549 -10865147.97746  22457740.8914   22457748.2574   22457740.2104
  -5124491.92849  -3755883.97345  24624115.3204   24624123.2674   24624114.0314
 -23862010.79949  -7203408.96747  20617333.6744   20617339.8954   20617333.1274
 -19202427.67449  -7855527.74247  21097667.0774   21097673.4314   21097666.6094
   3092563.56549   5275833.42145  25940396.4374   25940405.3184   25940395.6684
  -2782695.98049  14078202.23645  23897034.5584   23897042.3634   23897033.7984
  -9528777.02949  -4707253.99346  23675632.3724   23675639.9294   23675632.0114
 -14424371.39149  -1626480.45347  21790831.0354   21790838.1734   21790829.9324
 97  8 18  1  2 30.0000000  0  9G 1G14G22G25G29G 5G21G30G15
 -12037639.56549   8839449.77946  22310251.9434   22310259.0134   22310251.0154
 -14564107.08849 -10923379.46646  22443520.1244   22443527.5284   22443519.4354
  -5221792.88049  -3831702.82745  24605599.4504   24605607.5384   24605598.2394
 -23850270.72949  -7194260.85947  20619567.7264   20619573.9694   20619567.2014
 -19223399.64949  -7871869.53147  21093676.2364   21093682.6254   21093675.7624
   3174625.60749   5339777.91045  25956012.3984   25956021.2634   25956011.6084
  -2667963.50249  14167604.13045  23918867.5404   23918875.2124   23918866.6134
  -9499900.55249  -4684752.84946  23681127.3764   23681134.8894   23681127.0374
 -14365047.72349  -1580254.22847  21802119.9184   21802127.1064   21802118.8174
 97  8 18  1  3  0.0000000  0  9G 1G14G22G25G29G 5G21G30G15
 -11965746.52049   8895470.33546  22323932.7484   22323939.8334   22323931.8634
 -14638578.81849 -10981409.37646  22429348.5534   22429356.0044   22429347.9354
  -5319096.81049  -3907524.01045  24587083.1344   24587091.2284   24587081.9274
 -23838028.34649  -7184721.33847  20621897.3624   20621903.6384   20621896.8384
 -19244144.69149  -7888034.49447  21089728.5604   21089734.9374   21089728.0754
   3257066.28349   5404017.40945  25971700.2024   25971709.1154   25971699.4364
  -2552990.72349  14257193.26445  23940746.2374   23940753.8434   23940745.3174
  -9470427.23649  -4661786.64646  23686736.0674   23686743.4954   23686735.7444
 -14305163.36149  -1533591.10247  21813515.4984   21813522.7064   21813514.4084
 97  8 18  1  3 30.0000000  0  9G 1G14G22G25G29G 5G21G30G15
 -11893726.73649   8951589.64846  22337637.6484   22337644.6974   22337636.7464
 -14712802.85149 -11039246.26446  22415224.2124   22415231.6624   22415223.5744
  -5416424.16449  -3983363.44845  24568562.3634   24568570.3204   24568561.1594
 -23825307.14649  -7174808.71247  20624318.1184   20624324.3974   20624317.6024
 -19264676.18549  -7904033.04847  21085821.5384   21085827.9464   21085821.0904
   3339873.35849   5468542.41845  25987457.7914   25987466.8164   25987457.3284
  -2437790.05549  14346959.98145  23962668.1424   23962675.8134   23962667.2614
  -9440356.60249  -4638354.98846  23692458.2904   23692465.7544   23692457.9234
 -14244729.12749  -1486499.50247  21825015.7584   21825022.9764   21825014.6874
 97  8 18  1  4  0.0000000  0  8G 1G14G22G25G29G21G30G15
 -11821582.34749   9007806.04846  22351366.2654   22351373.3254   22351365.3624
 -14786796.19349 -11096903.40246  22401143.6974   22401151.2004   22401143.0624
  -5513768.29849  -4059215.95745  24550038.3694   24550046.1324   24550037.1434
 -23812119.83849  -7164532.88747  20626827.5874   20626833.8424   20626827.0554
 -19284991.97349  -7919863.52147  21081955.5764   21081961.9884   21081955.1264
  -2322368.06849  14436899.17345  23984632.1634   23984639.9474   23984631.2364
  -9409698.96649  -4614465.92146  23698292.2094   23698299.6934   23698291.8844
 -14183749.49949  -1438982.93547  21836619.8604   21836627.0264   21836618.7834
 97  8 18  1  4 30.0000000  0  8G 1G14G22G25G29G21G30G15
 -11749298.51449   9064131.10946  22365121.3824   22365128.4814   22365120.4804
 -14860568.97849 -11154388.67146  22387105.1944   22387112.6584   22387104.5004
  -5611121.15949  -4135075.27045  24531512.6254   24531520.3864   24531511.3594
 -23798490.63749  -7153912.72647  20629421.1254   20629427.3764   20629420.5994
 -19305077.43249  -7935514.51747  21078133.4244   21078139.8374   21078132.9824
  -2206715.98249  14527017.66845  24006639.9914   24006647.8674   24006639.1604
  -9378439.42849  -4590107.83946  23704240.6934   23704248.2374   23704240.3164
 -14122223.53349  -1391040.64247  21848327.9154   21848335.0194   21848326.8084
 97  8 18  1  5  0.0000000  0  8G 1G14G22G25G29G21G30G15
 -11676878.62849   9120562.18746  22378902.4264   22378909.5284   22378901.5594
 -14934132.15349 -11211710.61246  22373106.6074   22373114.0874   22373105.9014
  -5708508.36849  -4210961.35045  24512980.3914   24512988.0994   24512978.9884
 -23784432.17249  -7142958.07747  20632096.3514   20632102.6004   20632095.8374
 -19324945.89849  -7950996.43547  21074352.5944   21074358.9974   21074352.1504
  -2090843.11749  14617308.17945  24028690.0344   24028697.8864   24028689.0554
  -9346592.48949  -4565292.05145  23710301.0024   23710308.5574   23710300.6004
 -14060159.50649  -1342679.07247  21860138.3214   21860145.4124   21860137.2124
 97  8 18  1  5 30.0000000  0  8G 1G14G22G25G29G21G30G15
 -11604295.01949   9177120.84846  22392714.6264   22392721.7404   22392713.7574
 -15007472.08149 -11268858.59446  22359150.4464   22359157.9064   22359149.7734
  -5805898.46249  -4286849.66945  24494447.4864   24494455.3814   24494446.1384
 -23769915.42749  -7131646.32547  20634858.7744   20634865.0374   20634858.2454
 -19344591.11549  -7966304.38347  21070614.2364   21070620.6324   21070613.8084
  -1974727.64449  14707787.74645  24050786.0474   24050794.0284   24050785.0584
  -9314167.01849  -4540025.45445  23716471.3584   23716478.9354   23716470.9994
 -13997546.62549  -1293889.81946  21872053.0994   21872060.1934   21872051.9844
 97  8 18  1  6  0.0000000  0  8G 1G14G22G25G29G21G30G15
 -11531557.73849   9233799.24346  22406556.0344   22406563.1664   22406555.1754
 -15080599.51749 -11325841.01746  22345234.7284   22345242.1584   22345234.0574
  -5903302.07149  -4362748.54545  24475912.2014   24475919.9424   24475910.7504
 -23754959.71449  -7119992.52347  20637704.7664   20637711.0504   20637704.2554
 -19364037.89849  -7981457.71447  21066913.6654   21066920.0184   21066913.2104
  -1858419.37749  14798417.53245  24072918.7724   24072926.7504   24072917.8364
  -9281195.11649  -4514333.06545  23722745.6124   23722753.2734   23722745.2654
 -13934414.86049  -1244696.25946  21884066.6264   21884073.7354   21884065.5274
 97  8 18  1  6 30.0000000  0  8G 1G14G22G25G29G21G30G15
 -11458632.74449   9290623.90846  22420433.1734   22420440.3414   22420432.2884
 -15153470.01749 -11382623.21346  22331367.9164   22331375.3274   22331367.2664
  -6000715.90849  -4438655.38445  24457374.9524   24457382.6074   24457373.6434
 -23739515.74949  -7107958.26447  20640643.6474   20640649.9154   20640643.1404
 -19383266.73649  -7996441.22147  21063254.5074   21063260.8834   21063254.0534
  -1741909.32149  14889204.54645  24095089.9164   24095097.9104   24095088.9974
  -9247650.42249  -4488194.34945  23729128.8564   23729136.5484   23729128.5474
 -13870743.39349  -1195082.14846  21896182.8864   21896190.0514   21896181.7794
 97  8 18  1  7  0.0000000  0  8G 1G14G22G25G29G21G30G15
 -11385534.89249   9347583.27146  22434343.1434   22434350.4374   22434342.3584
 -15226089.06849 -11439209.48946  22317548.9994   22317556.4034   22317548.3534
  -6098143.25949  -4514572.76745  24438835.0944   24438842.5704   24438833.6674
 -23723558.30549  -7095523.89747  20643680.2264   20643686.4984   20643679.7184
 -19402289.95049  -8011264.50347  21059634.4694   21059640.8654   21059634.0194
  -1625224.87949  14980127.47545  24117294.2244   24117302.1554   24117293.2954
  -9213551.12249  -4461623.48045  23735617.6624   23735625.3524   23735617.4044
 -13806538.67849  -1145052.51846  21908400.6674   21908407.8104   21908399.5604
 97  8 18  1  7 30.0000000  0  8G 1G14G22G25G29G21G30G15
 -11312291.31849   9404656.17746  22448280.9934   22448288.2424   22448280.1994
 -15298483.81349 -11495620.96046  22303772.7084   22303780.1214   22303772.0504
  -6195586.90649  -4590502.82645  24420292.2674   24420299.6904   24420290.8254
 -23707096.25349  -7082696.32047  20646812.8654   20646819.1054   20646812.3494
 -19421129.58149  -8025944.72247  21056049.3864   21056055.7874   21056048.9514
  -1508401.55349  15071158.61845  24139524.9544   24139532.8594   24139524.0454
  -9178925.41149  -4434642.42545  23742206.6614   23742214.3524   23742206.3834
 -13741824.81949  -1094626.14446  21920715.2864   21920722.4454   21920714.1854
 97  8 18  1  8  0.0000000  0  8G 1G14G22G25G29G21G30G15
 -11238907.89949   9461838.05946  22462245.4254   22462252.6284   22462244.5924
 -15370635.62149 -11551843.14246  22290042.6164   22290050.0354   22290042.0154
  -6293028.73349  -4666431.47745  24401749.6864   24401757.2334   24401748.2824
 -23690109.41249  -7069459.81947  20650045.3224   20650051.5914   20650044.8214
 -19439764.45749  -8040465.39547  21052503.2864   21052509.6554   21052502.8564
  -1391416.57349  15162315.74845  24161786.4674   24161794.3374   24161785.5944
  -9143742.94049  -4407227.52045  23748901.7064   23748909.4314   23748901.4284
 -13676582.15749  -1043787.72246  21933130.6104   21933137.7514   21933129.4904
 97  8 18  1  8 30.0000000  0  8G 1G14G22G25G29G21G30G15
 -11165402.37249   9519115.09646  22476233.0094   22476240.2484   22476232.2084
 -15442545.19949 -11607876.56646  22276358.6884   22276366.0694   22276358.0484
  -6390460.91649  -4742352.59245  24383208.8934   24383216.3724   24383207.4574
 -23672598.84449  -7055815.22247  20653377.5174   20653383.7554   20653376.9954
 -19458187.50949  -8054821.01047  21048997.4854   21049003.8794   21048997.0824
  -1274238.82449  15253623.04645  24184084.5134   24184092.5514   24184083.5884
  -9107985.67749  -4379364.72945  23755706.0264   23755713.8054   23755705.7274
 -13610803.26649   -992531.45546  21945647.9234   21945655.0514   21945646.7954
 97  8 18  1  9  0.0000000  0  8G 1G14G22G25G29G21G30G15
 -11091801.61849   9576466.32546  22490238.7744   22490246.0214   22490237.9724
 -15514236.99349 -11663740.28146  22262716.1304   22262723.4934   22262715.5234
  -6487876.02349  -4818260.41745  24364671.4254   24364678.7954   24364670.0504
 -23654599.30349  -7041789.60347  20656802.7004   20656808.9534   20656802.2034
 -19476406.55349  -8069017.65947  21045530.5634   21045536.9404   21045530.1634
  -1156868.25549  15345080.60345  24206419.3374   24206427.3604   24206418.2954
  -9071657.92649  -4351057.40345  23762618.9944   23762626.7824   23762618.7024
 -13544502.85849   -940868.81946  21958264.4954   21958271.6154   21958263.3614
 97  8 18  1  9 30.0000000  0  8G 1G14G22G25G29G21G30G15
 -11018112.53049   9633886.37346  22504261.3584   22504268.5554   22504260.5454
 -15585711.20149 -11719434.46246  22249115.0374   22249122.3154   22249114.4394
  -6585283.85249  -4894162.55545  24346135.3584   24346142.6774   24346133.9124
 -23636144.17449  -7027408.98247  20660314.6344   20660320.8714   20660314.1024
 -19494417.42749  -8083052.10847  21042103.2164   21042109.5504   21042102.7854
  -1039300.24149  15436691.97645  24228791.8674   24228799.8744   24228790.7874
  -9034764.94849  -4322309.63745  23769639.5864   23769647.3724   23769639.3114
 -13477696.25049   -888811.73646  21970977.4054   21970984.4994   21970976.2604
 97  8 18  1 10  0.0000000  0  8G 1G14G22G25G29G21G30G15
 -10944333.15449   9691376.80246  22518301.1434   22518308.3354   22518300.3054
 -15656954.72649 -11774948.89346  22235557.8414   22235565.0594   22235557.2744
  -6682684.03849  -4970058.75245  24327600.6474   24327608.1674   24327599.2334
 -23617247.51449  -7012684.31747  20663910.5444   20663916.8174   20663910.0034
 -19512203.47749  -8096911.36547  21038718.6394   21038724.9964   21038718.2094
   -921519.47049  15528469.18345  24251204.8854   24251212.6724   24251203.7914
  -8997287.82949  -4293106.70845  23776771.3494   23776779.1404   23776771.0744
 -13410383.07049   -836359.92746  21983786.6664   21983793.7734   21983785.5524
 97  8 18  1 10 30.0000000  0  8G 1G14G22G25G29G21G30G15
 -10870407.91449   9748980.86546  22532368.6694   22532375.9004   22532367.8064
 -15727925.04449 -11830250.41946  22222052.6534   22222059.8384   22222052.0534
  -6780034.49449  -5045916.20945  24309075.5174   24309082.9894   24309074.0884
 -23597874.41749  -6997588.39347  20667597.0664   20667603.3804   20667596.5414
 -19529719.93949  -8110560.54847  21035385.3994   21035391.7384   21035384.9564
   -803497.68649  15620434.21345  24273663.7594   24273671.4674   24273662.7334
  -8959192.74249  -4263422.24345  23784020.5514   23784028.4074   23784020.3354
 -13342524.49349   -783483.12946  21996699.7264   21996706.9114   21996698.6134
 97  8 18  1 11  0.0000000  0  8G 1G14G22G25G29G21G30G15
 -10796373.18249   9806670.24446  22546457.0614   22546464.2694   22546456.1434
 -15798659.72649 -11885368.34946  22208592.3184   22208599.4494   22208591.7124
  -6877384.79249  -5121773.53145  24290550.2774   24290557.7684   24290548.9434
 -23578064.74449  -6982152.28847  20671366.7254   20671373.0444   20671366.2214
 -19547015.99749  -8124037.99947  21032094.0134   21032100.3674   21032093.5754
   -685291.33649  15712543.05745  24296157.5054   24296165.4144   24296156.7494
  -8920554.43449  -4233314.46745  23791373.0564   23791381.0134   23791372.9054
 -13274170.71549   -730220.46646  22009707.0114   22009714.2364   22009705.9084
 97  8 18  1 11 30.0000000  0  8G 1G14G22G25G29G21G30G15
 -10722228.30649   9864445.46546  22560566.3974   22560573.5424   22560565.4664
 -15869147.18149 -11940293.63246  22195179.0054   22195186.1034   22195178.3684
  -6974739.86949  -5197634.58745  24272024.1604   24272031.6774   24272022.9384
 -23557817.34949  -6966375.09847  20675219.6674   20675225.9944   20675219.1734
 -19564099.96349  -8137350.18747  21028843.0484   21028849.3934   21028842.6054
   -566919.80149  15804780.59545  24318682.7444   24318690.9074   24318682.2174
  -8881383.95649  -4202792.03645  23798827.0044   23798834.8914   23798826.8754
 -13205324.58949   -676574.15646  22022808.0014   22022815.2744   22022806.9184
 97  8 18  1 12  0.0000000  0  8G 1G14G22G25G29G21G30G15
 -10647960.86249   9922316.19046  22574699.0664   22574706.1704   22574698.1224
 -15939360.45849 -11995005.24746  22181817.8704   22181824.9604   22181817.1984
  -7072090.25949  -5273491.97445  24253499.0504   24253506.4814   24253497.7534
 -23537104.66249  -6950235.33447  20679161.1484   20679167.4804   20679160.6554
 -19580970.34649  -8150495.93347  21025632.7274   21025639.0634   21025632.2684
   -448372.62749  15897154.97145  24341241.5624   24341249.6734   24341240.8404
  -8841659.99949  -4171838.31845  23806386.3504   23806394.0814   23806386.1124
 -13135967.96049   -622530.03546  22036006.1434   22036013.4414   22036005.0514
 97  8 18  1 12 30.0000000  0  8G 1G14G22G25G29G21G30G15
 -10573575.60749   9980278.71646  22588854.1524   22588861.1854   22588853.1924
 -16009314.94549 -12049515.22346  22168505.9664   22168513.0774   22168505.2834
  -7169446.13049  -5349353.63045  24234972.7084   24234980.2654   24234971.3894
 -23515934.04149  -6933738.75247  20683189.7924   20683196.1094   20683189.2864
 -19597652.56549  -8163495.06447  21022458.1774   21022464.5204   21022457.7454
   -329672.21349  15989648.78945  24363829.5384   24363837.7344   24363828.9224
  -8801403.73849  -4140469.82645  23814046.9104   23814054.5314   23814046.6594
 -13066119.41249   -568102.60946  22049297.8994   22049305.1854   22049296.8194
 97  8 18  1 13  0.0000000  0  8G 1G14G22G25G29G21G30G15
 -10499081.50649  10038326.06146  22603029.9674   22603037.0044   22603028.9794
 -16079024.37449 -12103834.23846  22155240.6904   22155247.8344   22155240.0364
  -7266822.64149  -5425231.37545  24216442.4704   24216450.0544   24216441.1874
 -23494327.40649  -6916902.40847  20687301.3634   20687307.7054   20687300.8604
 -19614162.44549  -8176359.90047  21019316.4454   21019322.7764   21019316.0204
   -210832.70349  16082250.99445  24386443.9914   24386452.1644   24386443.4664
  -8760611.75749  -4108683.87245  23821809.2954   23821816.9854   23821809.0954
 -12995803.13549   -513310.72546  22062678.6534   22062685.9104   22062677.5664
 97  8 18  1 13 30.0000000  0  8G 1G14G22G25G29G21G30G15
 -10424416.00649  10096506.96446  22617238.3104   22617245.3734   22617237.3234
 -16148426.27949 -12157913.62646  22142033.9794   22142041.0794   22142033.3194
  -7364156.70449  -5501076.04745  24197920.3134   24197927.9874   24197919.0294
 -23472228.36749  -6899682.38447  20691506.6434   20691512.9704   20691506.1484
 -19630430.59249  -8189036.37847  21016220.7304   21016227.0424   21016220.2734
    -91794.12049  16175008.32345  24409096.3964   24409104.5894   24409095.7754
  -8719201.80549  -4076416.39045  23829689.3464   23829697.0114   23829689.1494
 -12924965.04849   -458112.22946  22076158.7304   22076165.9494   22076157.6644
 97  8 18  1 14  0.0000000  0  8G 1G14G22G25G29G21G30G15
 -10349582.11649  10154819.08746  22631478.6784   22631485.8314   22631477.7344
 -16217547.52749 -12211774.31946  22128880.6184   22128887.7014   22128879.9954
  -7461455.96149  -5576893.59445  24179404.7554   24179412.4894   24179403.4074
 -23449655.18949  -6882092.88947  20695802.1784   20695808.4934   20695801.6854
 -19646468.22749  -8201533.22947  21013168.8424   21013175.1844   21013168.3964
     27448.98849  16267925.02145  24431787.5854   24431795.9094   24431786.8964
  -8677191.91949  -4043681.43345  23837683.5854   23837691.2234   23837683.3554
 -12853623.08149   -402521.10046  22089734.6944   22089741.8804   22089733.6054
 97  8 18  1 14 30.0000000  0  9G 1G14G22G25G29G16G21G30G15
 -10274577.45849  10213264.26546  22645751.5624   22645758.7434   22645750.6734
 -16286391.55749 -12265418.99446  22115780.0744   22115787.1144   22115779.4144
  -7558701.91349  -5652669.59345  24160899.4364   24160907.1724   24160898.0284
 -23426614.13349  -6864138.81947  20700186.6944   20700193.0194   20700186.1894
 -19662267.90149  -8213844.65747  21010162.2614   21010168.6214   21010161.8184
   -294355.01149   -210293.35643
    146889.20349  16360995.30945  24454516.4294   24454524.5774   24454515.6914
  -8634601.70849  -4010494.26445  23845788.2934   23845795.8294   23845788.1154
 -12781782.03949   -346541.08446  22103405.5614   22103412.7644   22103404.4814
 97  8 18  1 15  0.0000000  0  9G 1G14G22G25G29G16G21G30G15
 -10199444.22149  10271809.63246  22660048.9474   22660056.1724   22660048.0554
 -16354982.30349 -12318866.30846  22102727.6544   22102734.7384   22102727.0014
  -7655931.63549  -5728432.96345  24142397.2294   24142404.9964   24142395.9174
 -23403136.43249  -6845844.50947  20704654.3444   20704660.6814   20704653.8564
 -19677856.85749  -8225991.89647  21007195.7764   21007202.1544   21007195.3414
   -388220.37549    -59121.56343
    266497.51349  16454196.56445  24477277.2544   24477285.2334   24477276.4644
  -8591475.27149  -3976889.26845  23853995.0434   23854002.4884   23853994.8234
 -12709472.41749   -290195.94446  22117165.6464   22117172.8144   22117164.5664
 97  8 18  1 15 30.0000000  0  9G 1G14G22G25G29G16G21G30G15
 -10124225.88949  10330421.31146  22674362.5344   22674369.7204   22674361.6564
 -16423352.14949 -12372141.49646  22089717.2674   22089724.3924   22089716.6284
  -7753165.89449  -5804199.85845  24123894.0944   24123901.8264   24123892.8764
 -23379243.93849  -6827226.98347  20709200.9974   20709207.2954   20709200.5094
 -19693264.30949  -8237997.70147  21004263.8274   21004270.2054   21004263.4014
   -482152.46049   -132315.11343
    386248.76049  16547509.17645  24500065.1854   24500073.1984   24500064.4894
  -8547868.49349  -3942909.97445  23862293.1534   23862300.5654   23862292.8994
 -12636717.12149   -233503.52246  22131010.5544   22131017.7124   22131009.4714
 97  8 18  1 16  0.0000000  0  9G 1G14G22G25G29G16G21G30G15
 -10048851.23549  10389154.80946  22688705.8354   22688713.0464   22688704.9964
 -16491417.94549 -12425179.76146  22076764.7384   22076771.9104   22076764.0844
  -7850309.76849  -5879896.33845  24105408.1954   24105415.7334   24105406.8344
 -23354861.51449  -6808227.69647  20713840.8114   20713847.1154   20713840.3274
 -19708413.11449  -8249801.96247  21001381.1214   21001387.4474   21001380.6774
   -576062.40549   -205491.72244  25406700.0474
    506211.99949  16640986.99245  24522893.5444   24522901.4984   24522892.7054
  -8503709.05749  -3908500.02945  23870696.3004   23870703.8684   23870696.1114
 -12563432.84149   -176398.90746  22144956.0504   22144963.2774   22144954.9674
 97  8 18  1 16 30.0000000  0  9G 1G14G22G25G29G16G21G30G15
  -9973368.27249  10447972.69746  22703069.7604   22703076.9744   22703068.9234
 -16559191.77549 -12477990.51346  22063867.7644   22063875.0044   22063867.1134
  -7947396.56049  -5955548.35645  24086933.1484   24086940.6424   24086931.6954
 -23330019.88449  -6788870.58047  20718568.0084   20718574.2964   20718567.5244
 -19723328.16049  -8261424.06947  20998542.8474   20998549.1564   20998542.4124
   -669984.55249   -278677.77245  25388818.0254   25388826.1714   25388817.4774
    626340.09149  16734593.29545  24545753.2634   24545761.0664   24545752.4194
  -8459016.02649  -3873674.30845  23879201.1514   23879208.6824   23879200.9534
 -12489654.92449   -118909.64446  22158995.5134   22159002.8214   22158994.4674
 97  8 18  1 17  0.0000000  0  9G 1G14G22G25G29G16G21G30G15
  -9897803.91349  10506854.01846  22717449.1984   22717456.3264   22717448.3284
 -16626701.97649 -12530595.85046  22051020.9634   22051028.2754   22051020.3464
  -8044446.71349  -6031171.80345  24068465.1254   24068472.5204   24068463.6594
 -23304746.36149  -6769176.92947  20723377.4164   20723383.6944   20723376.9254
 -19738030.98649  -8272880.81447  20995744.9984   20995751.3404   20995744.5984
   -763928.26449   -351880.62245  25370941.1654   25370950.3864   25370939.8644
    746614.73249  16828313.78945  24568640.7414   24568648.5204   24568639.8954
  -8413798.36849  -3838439.77945  23887805.8874   23887813.3344   23887805.6064
 -12415410.84349    -61057.12846  22173123.6964   22173131.0134   22173122.6474
 97  8 18  1 17 30.0000000  0  9G 1G14G22G25G29G16G21G30G15
  -9822143.63349  10565810.08246  22731846.8964   22731853.9924   22731845.9914
 -16693934.64349 -12582984.92646  22038226.9644   22038234.2994   22038226.3844
  -8141439.25249  -6106750.36845  24050008.0754   24050015.3744   24050006.7264
 -23279036.46949  -6749143.25047  20728269.8524   20728276.1554   20728269.3684
 -19752516.38649  -8284168.13647  20992988.5324   20992994.8504   20992988.1074
   -857868.19949   -425080.51445  25353065.3114   25353073.7994   25353064.6394
    867040.78949  16922152.25845  24591556.8634   24591564.9514   24591556.1404
  -8368039.98449  -3802783.90045  23896513.4754   23896520.9134   23896513.1784
 -12340700.95949     -2841.65246  22187340.5264   22187347.8854   22187339.4754
 97  8 18  1 18  0.0000000  0  9G 1G14G22G25G29G16G21G30G15
  -9746375.33649  10624850.31846  22746265.0464   22746272.1454   22746264.1994
 -16760873.66449 -12635145.18547  22025488.8334   22025496.2194   22025488.2424
  -8238368.18249  -6182279.37045  24031563.0474   24031570.4234   24031561.7364
 -23252882.04549  -6728763.18647  20733246.8704   20733253.1704   20733246.4124
 -19766782.48349  -8295284.57047  20990273.7284   20990280.0854   20990273.3164
   -951795.98349   -498270.92745  25335191.3404   25335200.1104   25335190.5234
    987610.61549  17016102.72945  24614500.3944   24614508.7424   24614499.7674
  -8321720.37249  -3766690.72145  23905327.8414   23905335.2174   23905327.5464
 -12265529.89849     55733.18146  22201645.0894   22201652.4524   22201644.0524
 97  8 18  1 18 30.0000000  0  9G 1G14G22G25G29G16G21G30G15
  -9670482.97349  10683987.22246  22760706.8294   22760713.9334   22760706.0514
 -16827512.31949 -12687071.39247  22012807.9124   22012815.2884   22012807.3404
  -8335226.89049  -6257753.64045  24013131.4154   24013138.7994   24013130.1464
 -23226268.43849  -6708025.31347  20738311.2804   20738317.5624   20738310.8164
 -19780828.02549  -8306229.14147  20987600.9494   20987607.3274   20987600.5464
  -1045702.07248   -571444.42945  25317321.3654   25317330.3454   25317320.6244
   1108339.11549  17110176.83645  24637474.1904   24637482.7004   24637473.6424
  -8274820.18549  -3730145.13045  23914252.6394   23914260.0724   23914252.4474
 -12189893.02249    114670.98946  22216038.2914   22216045.6504   22216037.2874
 97  8 18  1 19  0.0000000  0  9G 1G14G22G25G29G16G21G30G15
  -9594437.69349  10743243.28746  22775177.8364   22775184.8274   22775177.0334
 -16893844.19949 -12738758.56647  22000185.3674   22000192.7364   22000184.7704
  -8431992.20949  -6333155.14645  23994717.6144   23994724.9884   23994716.2834
 -23199171.44449  -6686910.77547  20743467.6764   20743473.9404   20743467.2064
 -19794656.44049  -8317004.53047  20984969.4884   20984975.8974   20984969.0784
  -1139572.02648   -644589.78545  25299458.6224   25299467.6134   25299457.6704
   1229233.70949  17204380.36345  24660479.5374   24660488.0994   24660479.0264
  -8227333.05349  -3693142.19045  23923289.0824   23923296.6234   23923288.9224
 -12113778.24849    173981.18646  22230522.4214   22230529.7954   22230521.4404
 97  8 18  1 19 30.0000000  0  9G 1G14G22G25G29G16G21G30G15
  -9518261.10149  10802601.66246  22789673.7584   22789680.7644   22789672.9674
 -16959888.79049 -12790221.86947  21987617.4574   21987624.8104   21987616.8604
  -8528688.69849  -6408503.00645  23976316.7904   23976324.2224   23976315.4534
 -23171616.32049  -6665439.25047  20748711.2734   20748717.5334   20748710.7874
 -19808294.71749  -8327631.75047  20982374.1974   20982380.6174   20982373.7954
  -1233431.81849   -717727.20445  25281597.6394   25281606.7424   25281596.6654
   1350259.81849  17298686.40245  24683510.1534   24683518.5614   24683509.4924
  -8179284.23549  -3655701.56045  23932432.4884   23932440.0244   23932432.3124
 -12037211.04249    233643.93346  22245092.6824   22245100.0744   22245091.6934
 97  8 18  1 20  0.0000000  0  9G 1G14G22G25G29G16G21G30G15
  -9441958.75049  10862058.03446  22804193.5894   22804200.5584   22804192.8064
 -17025654.53149 -12841467.88647  21975102.6404   21975109.9694   21975102.0044
  -8625318.65949  -6483799.02445  23957928.6874   23957936.0804   23957927.3724
 -23143609.92249  -6643616.08747  20754040.7124   20754046.9874   20754040.2174
 -19821746.77349  -8338113.86547  20979814.3594   20979820.8074   20979813.9674
  -1327277.50949   -790853.66345  25263739.3884   25263748.5694   25263738.6474
   1471405.33749  17393085.49745  24706563.3904   24706571.5734   24706562.5234
  -8130673.63049  -3617823.17345  23941682.8734   23941690.3224   23941682.6584
 -11960193.50549    293657.58146  22259748.6434   22259756.0264   22259747.6474
 97  8 18  1 20 30.0000000  0  9G 1G14G22G25G29G16G21G30G15
  -9365508.59549  10921629.58046  22818741.5914   22818748.5744   22818740.7854
 -17091124.02749 -12892483.06047  21962644.2074   21962651.5234   21962643.5784
  -8721867.57949  -6559031.89445  23939555.9474   23939563.4124   23939554.6914
 -23115147.16149  -6621437.31247  20759456.9894   20759463.2714   20759456.5174
 -19834993.12749  -8348435.69447  20977293.6654   20977300.1044   20977293.2824
  -1421083.61049   -863949.28445  25245888.7594   25245897.8604   25245888.0454
   1592691.06149  17487593.87344  24729643.3504   24729651.3564   24729642.3944
  -8081487.47149  -3579496.31245  23951042.6734   23951050.1814   23951042.4084
 -11882707.44749    354036.31446  22274493.8014   22274501.1764   22274492.7904
 97  8 18  1 21  0.0000000  0  9G 1G14G22G25G29G16G21G30G15
  -9288920.76249  10981308.39846  22833315.7354   22833322.7404   22833314.9354
 -17156302.82049 -12943271.72447  21950241.1014   21950248.3724   21950240.4744
  -8818349.42649  -6634212.49645  23921195.9794   23921203.4784   23921194.7524
 -23086252.38149  -6598921.90347  20764955.4644   20764961.7264   20764954.9914
 -19848036.94449  -8358599.70147  20974811.4774   20974817.8944   20974811.0804
  -1514861.86449   -937023.22545  25228043.3364   25228052.3794   25228042.7394
   1714103.28749  17582200.82044  24752747.3874   24752755.0634   24752746.5304
  -8031755.65249  -3540744.26145  23960506.2874   23960513.8154   23960506.0374
 -11804767.89249    414768.41646  22289325.2104   22289332.5474   22289324.1924
 97  8 18  1 21 30.0000000  0  9G 1G14G22G25G29G16G21G30G15
  -9212219.84549  11041075.33846  22847911.4694   22847918.4904   22847910.6404
 -17221203.06849 -12993843.34047  21937890.9854   21937898.2294   21937890.3644
  -8914782.57149  -6709355.15845  23902845.3594   23902852.8934   23902844.0864
 -23056948.49749  -6576087.71047  20770531.8554   20770538.0934   20770531.3604
 -19860867.98049  -8368597.89747  20972369.7714   20972376.2164   20972369.4014
  -1608618.76149  -1010080.52245  25210202.0014   25210210.9494   25210201.3314
   1835638.78949  17676903.87245  24775874.8374   24775882.5344   24775873.7494
  -7981494.76049  -3501579.93145  23970070.6274   23970078.1894   23970070.4554
 -11726386.56449    475844.76646  22304240.6894   22304248.0464   22304239.6764
 97  8 18  1 22  0.0000000  0  9G 1G14G22G25G29G16G21G30G15
  -9135401.93349  11100933.44846  22862529.4004   22862536.4614   22862528.6214
 -17285808.74749 -13044185.42047  21925596.9294   21925604.1314   21925596.3254
  -9011158.95949  -6784453.59545  23884505.4524   23884513.0174   23884504.1924
 -23027214.48749  -6552918.35347  20776190.0154   20776196.2784   20776189.5334
 -19873472.12049  -8378419.29447  20969971.3094   20969977.7434   20969970.9514
  -1702343.05049  -1083112.41545  25192366.8764   25192375.8494   25192366.1784
   1957313.79649  17771715.57845  24799028.9434   24799036.7024   24799027.9704
  -7930699.98649  -3461999.59645  23979736.5234   23979744.2364   23979736.3444
 -11647554.30349    537272.49046  22319241.9764   22319249.3464   22319240.9514
 97  8 18  1 22 30.0000000  0  9G 1G14G22G25G29G16G21G30G15
  -9058486.29549  11160867.70046  22877165.9484   22877173.1024   22877165.2384
 -17350113.61449 -13094293.10247  21913360.1034   21913367.3064   21913359.4874
  -9107485.92249  -6859513.50745  23866174.9244   23866182.5654   23866173.7224
 -22997061.10849  -6529422.21447  20781928.0044   20781934.3084   20781927.5314
 -19885854.40649  -8388067.82047  20967615.0454   20967621.4504   20967614.6724
  -1796052.46049  -1156132.70145  25174534.6844   25174543.5144   25174533.7434
   2079132.56049  17866639.29745  24822210.3184   24822218.1654   24822209.2424
  -7879386.20649  -3422014.85745  23989501.2284   23989508.9024   23989501.0244
 -11568285.68449    599040.23746  22334326.2854   22334333.6674   22334325.2684
 97  8 18  1 23  0.0000000  0  9G 1G14G22G25G29G16G21G30G15
  -8981466.21549  11220883.34246  22891822.4154   22891829.5734   22891821.6724
 -17414093.02449 -13144147.18047  21901185.2154   21901192.4074   21901184.6354
  -9203730.60049  -6934509.30045  23847860.1274   23847867.6994   23847858.9114
 -22966460.76449  -6505577.79047  20787750.9984   20787757.3644   20787750.5404
 -19897988.19649  -8397522.71047  20965306.0244   20965312.4184   20965305.6514
  -1889741.59149  -1229137.21845  25156706.3334   25156714.8064   25156705.3554
   2201115.93049  17961691.30045  24845422.9434   24845430.7404   24845421.9924
  -7827553.86249  -3381626.02045  23999364.5964   23999372.3114   23999364.4354
 -11488568.33549    661157.63446  22349496.0144   22349503.3864   22349495.0164
 97  8 18  1 23 30.0000000  0  9G 1G14G22G25G29G16G21G30G15
  -8904367.22849  11280960.46546  22906493.8834   22906501.0994   22906493.1254
 -17477755.51149 -13193754.30547  21889070.6444   21889077.8504   21889070.0724
  -9299894.22949  -7009441.94345  23829560.8294   23829568.3994   23829559.5694
 -22935425.65549  -6481394.58847  20793656.7764   20793663.1514   20793656.3214
 -19909885.90849  -8406793.64347  20963041.9524   20963048.3224   20963041.5784
  -1983421.01249  -1302134.16545  25138879.8944   25138887.7274   25138878.8164
   2323252.08849  18056862.33545  24868664.6684   24868672.5404   24868663.8824
  -7775208.85349  -3340837.72045  24009325.4854   24009333.1874   24009325.2404
 -11408420.52549    723610.46146  22364747.6694   22364755.0574   22364746.6384
 97  8 18  1 24  0.0000000  0  9G 1G14G22G25G29G16G21G30G15
  -8827183.87149  11341103.33946  22921181.4224   22921188.6424   22921180.6564
 -17541089.73549 -13243105.64247  21877018.5204   21877025.7514   21877017.9364
  -9395957.61049  -7084296.46545  23811280.5874   23811288.1714   23811279.3344
 -22903959.77249  -6456875.71847  20799644.5094   20799650.8834   20799644.0564
 -19921561.71949  -8415891.67047  20960820.0864   20960826.4724   20960819.7364
  -2077104.57549  -1375134.33145  25121052.6434   25121060.0524   25121051.4194
   2445532.72049  18152145.96045  24891933.9514   24891941.8904   24891933.1834
  -7722339.95049  -3299641.17745  24019386.0544   24019393.7544   24019385.8654
 -11327851.18349    786391.74646  22380079.5114   22380086.8854   22380078.4944
 97  8 18  1 24 30.0000000  0  9G 1G14G22G25G29G16G21G30G15
  -8749881.02649  11401339.30946  22935891.6574   22935898.9214   22935890.8734
 -17604080.36849 -13292189.23947  21865031.7494   21865038.9944   21865031.1944
  -9491887.82549  -7159047.21745  23793025.5724   23793033.2424   23793024.3524
 -22872050.93049  -6432011.68147  20805716.5704   20805722.9354   20805716.1124
 -19932992.76849  -8424798.97247  20958644.8614   20958651.2234   20958644.5024
  -2170780.51449  -1448128.52545  25103226.6244   25103233.9984   25103225.6294
   2567975.29949  18247555.73445  24915233.8584   24915241.8974   24915233.0154
  -7668931.51449  -3258024.22345  24029549.2834   24029557.0314   24029549.1304
 -11246843.83649    849514.35046  22395494.7464   22395502.0564   22395493.6834
 97  8 18  1 25  0.0000000  0  9G 1G14G22G25G29G16G21G30G15
  -8672481.36049  11461650.73546  22950620.3444   22950627.5514   22950619.5274
 -17666781.78449 -13341047.47347  21853100.0404   21853107.2694   21853099.5044
  -9587716.47749  -7233718.86045  23774789.9234   23774797.5144   23774788.7564
 -22839720.66149  -6406819.26447  20811868.8344   20811875.1984   20811868.3834
 -19944209.63249  -8433539.37847  20956510.3704   20956516.7174   20956509.9804
  -2264475.08349  -1521137.23444  25085396.9414   25085404.5294   25085395.8624
   2690535.11249  18343056.84045  24938556.0234   24938564.6014   24938555.1984
  -7615009.87549  -3216007.37245  24039810.3204   24039818.0574   24039810.1054
 -11165429.62449    912953.96246  22410987.2994   22410994.6774   22410986.3074
 97  8 18  1 25 30.0010000  0  9G 1G14G22G25G29G16G21G30G15
  -8594973.60949  11522046.37246  22965369.5854   22965376.7994   22965368.7764
 -17729206.63449 -13389690.20247  21841220.9724   21841228.1934   21841220.4484
  -9683450.67449  -7308316.89945  23756572.2934   23756579.7554   23756571.1184
 -22806962.84849  -6381293.69747  20818102.4104   20818108.7844   20818101.9684
 -19955222.49749  -8442120.82447  20954414.6604   20954421.0674   20954414.3114
  -2358171.91549  -1594147.71044  25067566.9484   25067574.6634   25067565.9654
   2813207.01548  18438645.28745  24961899.6604   24961908.3904   24961898.9174
  -7560551.45749  -3173572.26545  24050173.3474   24050181.1284   24050173.1624
 -11083604.02449    976714.15446  22426558.2294   22426565.5784   22426557.2184
 97  8 18  1 26  0.0010000  0  9G 1G14G22G25G29G16G21G30G15
  -8517332.35249  11582546.05646  22980144.2044   22980151.3974   22980143.3894
 -17791335.91749 -13438102.62147  21829398.1434   21829405.3264   21829397.6134
  -9779075.10849  -7382829.41145  23738375.5684   23738382.9984   23738374.3964
 -22773747.99549  -6355411.98947  20824422.9654   20824429.3544   20824422.5424
 -19966022.49549  -8450536.40447  20952359.5054   20952365.9154   20952359.1244
  -2451834.71449  -1667131.63645  25049743.3524   25049751.3224   25049742.4144
   2935995.52849  18534324.62745  24985265.6754   24985274.0204   24985264.9014
  -7505553.30649  -3130716.57245  24060639.1354   24060646.9824   24060639.0064
 -11001354.62549   1040804.58546  22442209.7644   22442217.1174   22442208.7624
